Time,TemperatureF,DewpointF,PressureIn,WindDirection,WindDirectionDegrees,WindSpeedMPH,WindSpeedGustMPH,Humidity,HourlyPrecipIn,Conditions,Clouds,dailyrainin,SolarRadiationWatts/m^2,SoftwareType,DateUTC
2013-04-10 00:02:00,50.4,25.1,30.01,NE,41,0.0,0.0,37,0.00,CLR,FEW,0.00,0.0,WeatherDisplay:10.37,2013-04-10 07:02:00,
2013-04-10 00:04:00,50.2,24.9,30.01,East,84,0.0,0.0,37,0.00,CLR,FEW,0.00,0.0,WeatherDisplay:10.37,2013-04-10 07:04:00,
2013-04-10 00:07:00,49.9,24.6,30.01,ENE,57,0.0,0.0,37,0.00,CLR,FEW,0.00,0.0,WeatherDisplay:10.37,2013-04-10 07:07:00,
2013-04-10 00:08:00,49.9,25.3,30.01,NE,56,0.0,0.0,38,0.00,CLR,FEW,0.00,0.0,WeatherDisplay:10.37,2013-04-10 07:08:00,
2013-04-10 00:09:00,49.9,25.3,30.01,NE,36,0.0,0.0,38,0.00,CLR,FEW,0.00,0.0,WeatherDisplay:10.37,2013-04-10 07:09:00,
2013-04-10 00:10:00,49.8,25.8,30.01,NNE,22,0.0,0.0,39,0.00,CLR,FEW,0.00,0.0,WeatherDisplay:10.37,2013-04-10 07:10:00,
2013-04-10 00:12:00,49.8,25.2,30.01,NNE,22,0.0,0.0,38,0.00,CLR,FEW,0.00,0.0,WeatherDisplay:10.37,2013-04-10 07:12:00,
2013-04-10 00:13:00,49.8,25.2,30.01,NNE,23,0.0,0.0,38,0.00,CLR,FEW,0.00,0.0,WeatherDisplay:10.37,2013-04-10 07:13:00,
2013-04-10 00:15:00,49.9,24.6,30.01,NNE,24,0.0,0.0,37,0.00,CLR,FEW,0.00,0.0,WeatherDisplay:10.37,2013-04-10 07:15:00,
2013-04-10 00:17:00,50.2,24.9,30.01,NNE,24,0.0,0.0,37,0.00,CLR,FEW,0.00,0.0,WeatherDisplay:10.37,2013-04-10 07:17:00,
2013-04-10 00:18:00,50.2,24.9,30.01,NNE,23,0.0,0.0,37,0.00,CLR,FEW,0.00,0.0,WeatherDisplay:10.37,2013-04-10 07:18:00,
2013-04-10 00:20:00,50.1,25.5,30.01,NNE,23,0.0,0.0,38,0.00,CLR,FEW,0.00,0.0,WeatherDisplay:10.37,2013-04-10 07:20:00,
2013-04-10 00:21:00,50.1,25.5,30.01,NNE,24,0.0,0.0,38,0.00,CLR,FEW,0.00,0.0,WeatherDisplay:10.37,2013-04-10 07:21:00,
2013-04-10 00:23:00,49.9,25.3,30.01,NNE,24,0.0,0.0,38,0.00,CLR,FEW,0.00,0.0,WeatherDisplay:10.37,2013-04-10 07:23:00,
2013-04-10 00:27:00,50.2,24.2,30.01,NNE,24,0.0,0.0,36,0.00,CLR,FEW,0.00,0.0,WeatherDisplay:10.37,2013-04-10 07:27:00,
2013-04-10 00:28:00,50.4,25.1,30.01,NNE,24,0.0,0.0,37,0.00,CLR,FEW,0.00,0.0,WeatherDisplay:10.37,2013-04-10 07:28:00,
2013-04-10 00:29:00,50.2,24.9,30.01,ENE,76,0.0,0.0,37,0.00,CLR,FEW,0.00,0.0,WeatherDisplay:10.37,2013-04-10 07:29:00,
2013-04-10 00:30:00,50.1,24.8,30.01,ENE,76,0.0,0.0,37,0.00,CLR,FEW,0.00,0.0,WeatherDisplay:10.37,2013-04-10 07:30:00,
2013-04-10 00:32:00,50.1,24.2,30.01,SE,129,0.3,1.3,36,0.00,CLR,FEW,0.00,0.0,WeatherDisplay:10.37,2013-04-10 07:32:00,
2013-04-10 00:33:00,50.1,23.5,30.01,SE,138,0.3,1.2,35,0.00,CLR,FEW,0.00,0.0,WeatherDisplay:10.37,2013-04-10 07:33:00,
2013-04-10 00:35:00,50.2,23.6,30.01,SE,138,0.0,0.0,35,0.00,CLR,FEW,0.00,0.0,WeatherDisplay:10.37,2013-04-10 07:35:00,
2013-04-10 00:37:00,50.1,24.8,30.01,NNE,13,0.0,0.0,37,0.00,CLR,FEW,0.00,0.0,WeatherDisplay:10.37,2013-04-10 07:37:00,
2013-04-10 00:38:00,49.9,24.6,30.01,NNE,12,0.0,0.0,37,0.00,CLR,FEW,0.00,0.0,WeatherDisplay:10.37,2013-04-10 07:38:00,
2013-04-10 00:40:00,49.6,24.4,30.01,NNE,15,0.0,0.0,37,0.00,CLR,FEW,0.00,0.0,WeatherDisplay:10.37,2013-04-10 07:40:00,
2013-04-10 00:43:00,49.5,24.3,30.01,NNE,24,0.0,0.0,37,0.00,CLR,FEW,0.00,0.0,WeatherDisplay:10.37,2013-04-10 07:43:00,
2013-04-10 00:45:00,49.6,23.7,30.01,NE,41,0.0,0.0,36,0.00,CLR,FEW,0.00,0.0,WeatherDisplay:10.37,2013-04-10 07:45:00,
2013-04-10 00:48:00,49.8,23.9,30.01,NE,41,0.0,0.0,36,0.00,CLR,FEW,0.00,0.0,WeatherDisplay:10.37,2013-04-10 07:48:00,
2013-04-10 00:50:00,49.6,24.4,30.01,NE,41,0.0,0.0,37,0.00,CLR,FEW,0.00,0.0,WeatherDisplay:10.37,2013-04-10 07:50:00,
2013-04-10 00:51:00,49.6,23.7,30.01,NE,41,0.0,0.0,36,0.00,CLR,FEW,0.00,0.0,WeatherDisplay:10.37,2013-04-10 07:51:00,
2013-04-10 00:54:00,49.6,23.7,30.01,NE,41,0.0,0.0,36,0.00,CLR,FEW,0.00,0.0,WeatherDisplay:10.37,2013-04-10 07:54:00,
2013-04-10 00:55:00,49.6,23.1,30.01,NE,41,0.0,0.0,35,0.00,CLR,FEW,0.00,0.0,WeatherDisplay:10.37,2013-04-10 07:55:00,
2013-04-10 00:58:00,50.1,23.5,30.01,NE,42,0.0,0.0,35,0.00,CLR,FEW,0.00,0.0,WeatherDisplay:10.37,2013-04-10 07:58:00,
2013-04-10 01:00:00,50.1,23.5,30.01,NE,42,0.0,0.0,35,0.00,CLR,FEW,0.00,0.0,WeatherDisplay:10.37,2013-04-10 08:00:00,
2013-04-10 01:03:00,50.4,23.1,30.01,East,90,0.0,0.0,34,0.00,CLR,FEW,0.00,0.0,WeatherDisplay:10.37,2013-04-10 08:03:00,
2013-04-10 01:04:00,50.4,23.1,30.01,East,90,0.0,0.0,34,0.00,CLR,FEW,0.00,0.0,WeatherDisplay:10.37,2013-04-10 08:04:00,
2013-04-10 01:05:00,50.1,23.5,30.01,East,90,0.0,0.0,35,0.00,CLR,FEW,0.00,0.0,WeatherDisplay:10.37,2013-04-10 08:05:00,
2013-04-10 01:09:00,49.9,24.0,30.01,East,90,0.0,0.0,36,0.00,CLR,FEW,0.00,0.0,WeatherDisplay:10.37,2013-04-10 08:09:00,
2013-04-10 01:10:00,49.9,24.0,30.01,East,90,0.0,0.0,36,0.00,CLR,FEW,0.00,0.0,WeatherDisplay:10.37,2013-04-10 08:10:00,
2013-04-10 01:14:00,48.9,23.7,30.01,ENE,63,0.0,0.0,37,0.00,CLR,FEW,0.00,0.0,WeatherDisplay:10.37,2013-04-10 08:14:00,
2013-04-10 01:15:00,49.1,23.9,30.01,ENE,63,0.0,0.0,37,0.00,CLR,FEW,0.00,0.0,WeatherDisplay:10.37,2013-04-10 08:15:00,
2013-04-10 01:17:00,48.9,23.7,30.01,ENE,63,0.0,0.0,37,0.00,CLR,FEW,0.00,0.0,WeatherDisplay:10.37,2013-04-10 08:17:00,
2013-04-10 01:20:00,48.9,23.7,30.01,ENE,63,0.0,0.0,37,0.00,CLR,FEW,0.00,0.0,WeatherDisplay:10.37,2013-04-10 08:20:00,
2013-04-10 01:21:00,49.1,23.9,30.01,ENE,63,0.0,0.0,37,0.00,CLR,FEW,0.00,0.0,WeatherDisplay:10.37,2013-04-10 08:21:00,
2013-04-10 01:22:00,49.1,23.9,30.01,ENE,63,0.0,0.0,37,0.00,CLR,FEW,0.00,0.0,WeatherDisplay:10.37,2013-04-10 08:22:00,
2013-04-10 01:25:00,48.9,25.0,30.01,ENE,63,0.0,0.0,39,0.00,CLR,FEW,0.00,0.0,WeatherDisplay:10.37,2013-04-10 08:25:00,
2013-04-10 01:27:00,48.8,24.9,30.01,ENE,63,0.0,0.0,39,0.00,CLR,FEW,0.00,0.0,WeatherDisplay:10.37,2013-04-10 08:27:00,
2013-04-10 01:29:00,48.5,24.6,30.01,ENE,63,0.0,0.0,39,0.00,CLR,FEW,0.00,0.0,WeatherDisplay:10.37,2013-04-10 08:29:00,
2013-04-10 01:30:00,48.5,24.0,30.01,ENE,63,0.0,0.0,38,0.00,CLR,FEW,0.00,0.0,WeatherDisplay:10.37,2013-04-10 08:30:00,
2013-04-10 01:33:00,48.2,23.7,30.01,ENE,63,0.0,0.0,38,0.00,CLR,FEW,0.00,0.0,WeatherDisplay:10.37,2013-04-10 08:33:00,
2013-04-10 01:35:00,48.2,23.7,30.01,ENE,63,0.0,0.0,38,0.00,CLR,FEW,0.00,0.0,WeatherDisplay:10.37,2013-04-10 08:35:00,
2013-04-10 01:36:00,48.2,23.7,30.01,ENE,63,0.0,0.0,38,0.00,CLR,FEW,0.00,0.0,WeatherDisplay:10.37,2013-04-10 08:36:00,
2013-04-10 01:38:00,47.9,24.1,30.01,ENE,63,0.0,0.0,39,0.00,CLR,FEW,0.00,0.0,WeatherDisplay:10.37,2013-04-10 08:38:00,
2013-04-10 01:41:00,47.4,24.3,30.01,ENE,63,0.0,0.0,40,0.00,CLR,FEW,0.00,0.0,WeatherDisplay:10.37,2013-04-10 08:41:00,
2013-04-10 01:43:00,47.7,23.3,30.01,ENE,63,0.0,0.0,38,0.00,CLR,FEW,0.00,0.0,WeatherDisplay:10.37,2013-04-10 08:43:00,
2013-04-10 01:44:00,47.9,22.8,30.01,ENE,63,0.0,0.0,37,0.00,CLR,FEW,0.00,0.0,WeatherDisplay:10.37,2013-04-10 08:44:00,
2013-04-10 01:46:00,48.0,22.9,30.01,ENE,63,0.0,0.0,37,0.00,CLR,FEW,0.00,0.0,WeatherDisplay:10.37,2013-04-10 08:46:00,
2013-04-10 01:47:00,48.2,23.1,30.01,ENE,63,0.0,0.0,37,0.00,CLR,FEW,0.00,0.0,WeatherDisplay:10.37,2013-04-10 08:47:00,
2013-04-10 01:48:00,48.0,24.2,30.01,East,95,0.0,0.0,39,0.00,CLR,FEW,0.00,0.0,WeatherDisplay:10.37,2013-04-10 08:48:00,
2013-04-10 01:49:00,47.7,23.9,30.01,East,80,0.0,0.0,39,0.00,CLR,FEW,0.00,0.0,WeatherDisplay:10.37,2013-04-10 08:49:00,
2013-04-10 01:52:00,47.6,23.8,30.01,ENE,67,0.0,0.0,39,0.00,CLR,FEW,0.00,0.0,WeatherDisplay:10.37,2013-04-10 08:52:00,
2013-04-10 01:54:00,47.4,23.7,30.01,ENE,65,0.0,0.0,39,0.00,CLR,FEW,0.00,0.0,WeatherDisplay:10.37,2013-04-10 08:54:00,
2013-04-10 01:57:00,47.6,23.2,30.01,ENE,65,0.0,0.0,38,0.00,CLR,FEW,0.00,0.0,WeatherDisplay:10.37,2013-04-10 08:57:00,
2013-04-10 01:59:00,47.9,24.1,30.01,ENE,65,0.0,0.0,39,0.00,CLR,FEW,0.00,0.0,WeatherDisplay:10.37,2013-04-10 08:59:00,
2013-04-10 02:00:00,47.9,24.1,30.01,ENE,65,0.0,0.0,39,0.00,CLR,FEW,0.00,0.0,WeatherDisplay:10.37,2013-04-10 09:00:00,
2013-04-10 02:02:00,48.2,22.5,30.01,ENE,65,0.0,0.0,36,0.00,CLR,FEW,0.00,0.0,WeatherDisplay:10.37,2013-04-10 09:02:00,
2013-04-10 02:04:00,48.6,22.8,30.01,ENE,65,0.0,0.0,36,0.00,CLR,FEW,0.00,0.0,WeatherDisplay:10.37,2013-04-10 09:04:00,
2013-04-10 02:05:00,48.8,23.0,30.01,ENE,65,0.0,0.0,36,0.00,CLR,FEW,0.00,0.0,WeatherDisplay:10.37,2013-04-10 09:05:00,
2013-04-10 02:08:00,48.9,22.4,30.01,ENE,65,0.0,0.0,35,0.00,CLR,FEW,0.00,0.0,WeatherDisplay:10.37,2013-04-10 09:08:00,
2013-04-10 02:09:00,49.1,22.6,30.01,ENE,65,0.0,0.0,35,0.00,CLR,FEW,0.00,0.0,WeatherDisplay:10.37,2013-04-10 09:09:00,
2013-04-10 02:10:00,49.2,22.0,30.01,ENE,65,0.0,0.0,34,0.00,CLR,FEW,0.00,0.0,WeatherDisplay:10.37,2013-04-10 09:10:00,
2013-04-10 02:11:00,49.4,22.2,30.01,ENE,65,0.0,0.0,34,0.00,CLR,FEW,0.00,0.0,WeatherDisplay:10.37,2013-04-10 09:11:00,
2013-04-10 02:13:00,49.2,22.7,30.01,ENE,65,0.0,0.0,35,0.00,CLR,FEW,0.00,0.0,WeatherDisplay:10.37,2013-04-10 09:13:00,
2013-04-10 02:14:00,49.1,22.6,30.01,ENE,65,0.0,0.0,35,0.00,CLR,FEW,0.00,0.0,WeatherDisplay:10.37,2013-04-10 09:14:00,
2013-04-10 02:15:00,48.9,22.4,30.01,ENE,65,0.0,0.0,35,0.00,CLR,FEW,0.00,0.0,WeatherDisplay:10.37,2013-04-10 09:15:00,
2013-04-10 02:18:00,48.6,22.8,30.01,ENE,67,0.0,0.0,36,0.00,CLR,FEW,0.00,0.0,WeatherDisplay:10.37,2013-04-10 09:18:00,
2013-04-10 02:19:00,48.6,22.1,30.01,ENE,67,0.0,0.0,35,0.00,CLR,FEW,0.00,0.0,WeatherDisplay:10.37,2013-04-10 09:19:00,
2013-04-10 02:20:00,48.8,22.3,30.01,ENE,66,0.0,0.0,35,0.00,CLR,FEW,0.00,0.0,WeatherDisplay:10.37,2013-04-10 09:20:00,
2013-04-10 02:21:00,48.9,22.4,30.01,ENE,66,0.0,0.0,35,0.00,CLR,FEW,0.00,0.0,WeatherDisplay:10.37,2013-04-10 09:21:00,
2013-04-10 02:23:00,48.8,23.0,30.01,ENE,67,0.0,0.0,36,0.00,CLR,FEW,0.00,0.0,WeatherDisplay:10.37,2013-04-10 09:23:00,
2013-04-10 02:25:00,48.8,22.3,30.01,ENE,67,0.0,0.0,35,0.00,CLR,FEW,0.00,0.0,WeatherDisplay:10.37,2013-04-10 09:25:00,
2013-04-10 02:26:00,49.1,21.9,30.01,ENE,67,0.0,0.0,34,0.00,CLR,FEW,0.00,0.0,WeatherDisplay:10.37,2013-04-10 09:26:00,
2013-04-10 02:29:00,49.4,22.2,30.01,ENE,66,0.0,0.0,34,0.00,CLR,FEW,0.00,0.0,WeatherDisplay:10.37,2013-04-10 09:29:00,
2013-04-10 02:30:00,49.4,22.2,30.01,ENE,66,0.0,0.0,34,0.00,CLR,FEW,0.00,0.0,WeatherDisplay:10.37,2013-04-10 09:30:00,
2013-04-10 02:31:00,49.5,21.5,30.01,ENE,66,0.0,0.0,33,0.00,CLR,FEW,0.00,0.0,WeatherDisplay:10.37,2013-04-10 09:31:00,
2013-04-10 02:32:00,49.5,22.3,30.01,ENE,67,0.0,0.0,34,0.00,CLR,FEW,0.00,0.0,WeatherDisplay:10.37,2013-04-10 09:32:00,
2013-04-10 02:34:00,49.1,21.9,30.01,ENE,67,0.0,0.0,34,0.00,CLR,FEW,0.00,0.0,WeatherDisplay:10.37,2013-04-10 09:34:00,
2013-04-10 02:36:00,48.9,22.4,30.01,ENE,67,0.0,0.0,35,0.00,CLR,FEW,0.00,0.0,WeatherDisplay:10.37,2013-04-10 09:36:00,
2013-04-10 02:37:00,48.9,22.4,30.01,ENE,67,0.0,0.0,35,0.00,CLR,FEW,0.00,0.0,WeatherDisplay:10.37,2013-04-10 09:37:00,
2013-04-10 02:38:00,48.8,22.3,30.01,ENE,67,0.0,0.0,35,0.00,CLR,FEW,0.00,0.0,WeatherDisplay:10.37,2013-04-10 09:38:00,
2013-04-10 02:40:00,48.8,22.3,30.01,ENE,67,0.0,0.0,35,0.00,CLR,FEW,0.00,0.0,WeatherDisplay:10.37,2013-04-10 09:40:00,
2013-04-10 02:42:00,48.8,22.3,30.01,ENE,67,0.0,0.0,35,0.00,CLR,FEW,0.00,0.0,WeatherDisplay:10.37,2013-04-10 09:42:00,
2013-04-10 02:43:00,48.8,22.3,30.01,ENE,67,0.0,0.0,35,0.00,CLR,FEW,0.00,0.0,WeatherDisplay:10.37,2013-04-10 09:43:00,
2013-04-10 02:44:00,48.9,22.4,30.01,ENE,67,0.0,0.0,35,0.00,CLR,FEW,0.00,0.0,WeatherDisplay:10.37,2013-04-10 09:44:00,
2013-04-10 02:45:00,48.9,22.4,30.01,ENE,67,0.0,0.0,35,0.00,CLR,FEW,0.00,0.0,WeatherDisplay:10.37,2013-04-10 09:45:00,
2013-04-10 02:48:00,48.8,23.0,30.00,ENE,66,0.0,0.0,36,0.00,CLR,FEW,0.00,0.0,WeatherDisplay:10.37,2013-04-10 09:48:00,
2013-04-10 02:49:00,48.8,23.0,30.00,ENE,66,0.0,0.0,36,0.00,CLR,FEW,0.00,0.0,WeatherDisplay:10.37,2013-04-10 09:49:00,
2013-04-10 02:50:00,48.7,22.9,30.00,ENE,67,0.0,0.0,36,0.00,CLR,FEW,0.00,0.0,WeatherDisplay:10.37,2013-04-10 09:50:00,
2013-04-10 02:54:00,48.2,22.5,30.00,ENE,66,0.0,0.0,36,0.00,CLR,FEW,0.00,0.0,WeatherDisplay:10.37,2013-04-10 09:54:00,
2013-04-10 02:55:00,48.2,22.5,30.00,ENE,66,0.0,0.0,36,0.00,CLR,FEW,0.00,0.0,WeatherDisplay:10.37,2013-04-10 09:55:00,
2013-04-10 02:59:00,48.3,22.5,30.00,ENE,67,0.0,0.0,36,0.00,CLR,FEW,0.00,0.0,WeatherDisplay:10.37,2013-04-10 09:59:00,
2013-04-10 03:00:00,48.3,22.5,30.00,ENE,67,0.0,0.0,36,0.00,CLR,FEW,0.00,0.0,WeatherDisplay:10.37,2013-04-10 10:00:00,
2013-04-10 03:05:00,48.3,22.5,30.01,ENE,67,0.0,0.0,36,0.00,CLR,FEW,0.00,0.0,WeatherDisplay:10.37,2013-04-10 10:05:00,
2013-04-10 03:06:00,48.2,23.1,30.01,NNE,18,0.0,0.0,37,0.00,CLR,FEW,0.00,0.0,WeatherDisplay:10.37,2013-04-10 10:06:00,
2013-04-10 03:10:00,48.5,22.7,30.01,NNE,21,0.0,0.0,36,0.00,CLR,FEW,0.00,0.0,WeatherDisplay:10.37,2013-04-10 10:10:00,
2013-04-10 03:11:00,48.5,22.7,30.01,NNE,21,0.0,0.0,36,0.00,CLR,FEW,0.00,0.0,WeatherDisplay:10.37,2013-04-10 10:11:00,
2013-04-10 03:15:00,48.8,22.3,30.01,NNE,24,0.0,0.0,35,0.00,CLR,FEW,0.00,0.0,WeatherDisplay:10.37,2013-04-10 10:15:00,
2013-04-10 03:16:00,48.8,22.3,30.01,East,85,0.0,0.0,35,0.00,CLR,FEW,0.00,0.0,WeatherDisplay:10.37,2013-04-10 10:16:00,
2013-04-10 03:17:00,48.6,22.1,30.01,ENE,71,0.0,0.0,35,0.00,CLR,FEW,0.00,0.0,WeatherDisplay:10.37,2013-04-10 10:17:00,
2013-04-10 03:20:00,48.2,22.5,30.01,ENE,71,0.0,0.0,36,0.00,CLR,FEW,0.00,0.0,WeatherDisplay:10.37,2013-04-10 10:20:00,
2013-04-10 03:21:00,48.2,22.5,30.01,NE,55,0.0,0.0,36,0.00,CLR,FEW,0.00,0.0,WeatherDisplay:10.37,2013-04-10 10:21:00,
2013-04-10 03:22:00,48.0,22.3,30.01,NNE,24,0.0,0.0,36,0.00,CLR,FEW,0.00,0.0,WeatherDisplay:10.37,2013-04-10 10:22:00,
2013-04-10 03:26:00,48.2,22.5,30.01,NNE,26,0.0,0.0,36,0.00,CLR,FEW,0.00,0.0,WeatherDisplay:10.37,2013-04-10 10:26:00,
2013-04-10 03:27:00,48.2,22.5,30.01,NNE,26,0.0,0.0,36,0.00,CLR,FEW,0.00,0.0,WeatherDisplay:10.37,2013-04-10 10:27:00,
2013-04-10 03:29:00,48.5,22.1,30.01,NNE,30,0.0,0.0,35,0.00,CLR,FEW,0.00,0.0,WeatherDisplay:10.37,2013-04-10 10:29:00,
2013-04-10 03:31:00,48.8,22.3,30.00,East,81,0.0,0.0,35,0.00,CLR,FEW,0.00,0.0,WeatherDisplay:10.37,2013-04-10 10:31:00,
2013-04-10 03:32:00,48.9,22.4,30.00,East,82,0.0,0.0,35,0.00,CLR,FEW,0.00,0.0,WeatherDisplay:10.37,2013-04-10 10:32:00,
2013-04-10 03:35:00,48.8,22.3,30.00,ENE,65,0.0,0.0,35,0.00,CLR,FEW,0.00,0.0,WeatherDisplay:10.37,2013-04-10 10:35:00,
2013-04-10 03:37:00,48.5,22.7,30.00,NE,55,0.0,0.0,36,0.00,CLR,FEW,0.00,0.0,WeatherDisplay:10.37,2013-04-10 10:37:00,
2013-04-10 03:38:00,48.3,22.5,30.00,ENE,57,0.0,0.0,36,0.00,CLR,FEW,0.00,0.0,WeatherDisplay:10.37,2013-04-10 10:38:00,
2013-04-10 03:42:00,48.3,22.5,30.00,NNE,22,0.0,0.0,36,0.00,CLR,FEW,0.00,0.0,WeatherDisplay:10.37,2013-04-10 10:42:00,
2013-04-10 03:43:00,48.3,22.5,30.00,NNE,22,0.0,0.0,36,0.00,CLR,FEW,0.00,0.0,WeatherDisplay:10.37,2013-04-10 10:43:00,
2013-04-10 03:48:00,49.2,22.0,30.00,East,80,0.0,0.0,34,0.00,CLR,FEW,0.00,0.0,WeatherDisplay:10.37,2013-04-10 10:48:00,
2013-04-10 03:49:00,49.2,22.0,30.00,ENE,78,0.0,0.0,34,0.00,CLR,FEW,0.00,0.0,WeatherDisplay:10.37,2013-04-10 10:49:00,
2013-04-10 03:50:00,49.4,22.1,30.00,NE,37,0.0,0.0,34,0.00,CLR,FEW,0.00,0.0,WeatherDisplay:10.37,2013-04-10 10:50:00,
2013-04-10 03:53:00,49.2,22.0,30.00,NE,47,0.0,0.0,34,0.00,CLR,FEW,0.00,0.0,WeatherDisplay:10.37,2013-04-10 10:53:00,
2013-04-10 03:54:00,49.2,22.0,30.00,NE,47,0.0,0.0,34,0.00,CLR,FEW,0.00,0.0,WeatherDisplay:10.37,2013-04-10 10:54:00,
2013-04-10 03:56:00,49.2,22.7,30.00,NE,47,0.0,0.0,35,0.00,CLR,FEW,0.00,0.0,WeatherDisplay:10.37,2013-04-10 10:56:00,
2013-04-10 03:59:00,49.1,22.6,30.00,East,80,0.0,0.0,35,0.00,CLR,FEW,0.00,0.0,WeatherDisplay:10.37,2013-04-10 10:59:00,
2013-04-10 04:00:00,48.9,22.4,30.00,East,80,0.0,0.0,35,0.00,CLR,FEW,0.00,0.0,WeatherDisplay:10.37,2013-04-10 11:00:00,
2013-04-10 04:01:00,48.9,22.4,30.00,NE,51,0.0,0.0,35,0.00,CLR,FEW,0.00,0.0,WeatherDisplay:10.37,2013-04-10 11:01:00,
2013-04-10 04:04:00,49.4,21.5,30.00,NE,51,0.0,0.0,33,0.00,CLR,FEW,0.00,0.0,WeatherDisplay:10.37,2013-04-10 11:04:00,
2013-04-10 04:05:00,49.4,21.4,30.00,ENE,60,0.0,0.0,33,0.00,CLR,FEW,0.00,0.0,WeatherDisplay:10.37,2013-04-10 11:05:00,
2013-04-10 04:06:00,49.5,21.5,30.00,NE,51,0.0,0.0,33,0.00,CLR,FEW,0.00,0.0,WeatherDisplay:10.37,2013-04-10 11:06:00,
2013-04-10 04:08:00,49.6,22.3,30.00,NE,51,0.0,0.0,34,0.00,CLR,FEW,0.00,0.0,WeatherDisplay:10.37,2013-04-10 11:08:00,
2013-04-10 04:09:00,49.6,22.3,30.00,NE,51,0.0,0.0,34,0.00,CLR,FEW,0.00,0.0,WeatherDisplay:10.37,2013-04-10 11:09:00,
2013-04-10 04:11:00,49.6,21.6,30.00,East,98,0.0,0.0,33,0.00,CLR,FEW,0.00,0.0,WeatherDisplay:10.37,2013-04-10 11:11:00,
2013-04-10 04:13:00,48.5,22.7,30.00,NE,36,0.0,0.0,36,0.00,CLR,FEW,0.00,0.0,WeatherDisplay:10.37,2013-04-10 11:13:00,
2013-04-10 04:14:00,48.3,23.2,30.00,ENE,65,0.1,0.0,37,0.00,CLR,FEW,0.00,0.0,WeatherDisplay:10.37,2013-04-10 11:14:00,
2013-04-10 04:17:00,48.0,22.9,30.01,ENE,67,0.0,0.0,37,0.00,CLR,FEW,0.00,0.0,WeatherDisplay:10.37,2013-04-10 11:17:00,
2013-04-10 04:18:00,48.2,23.1,30.01,ENE,67,0.0,0.0,37,0.00,CLR,FEW,0.00,0.0,WeatherDisplay:10.37,2013-04-10 11:18:00,
2013-04-10 04:19:00,48.2,23.1,30.01,ENE,67,0.0,0.0,37,0.00,CLR,FEW,0.00,0.0,WeatherDisplay:10.37,2013-04-10 11:19:00,
2013-04-10 04:20:00,48.2,23.1,30.01,ENE,67,0.0,0.0,37,0.00,CLR,FEW,0.00,0.0,WeatherDisplay:10.37,2013-04-10 11:20:00,
2013-04-10 04:24:00,48.9,22.4,30.01,NE,37,0.0,0.0,35,0.00,CLR,FEW,0.00,0.0,WeatherDisplay:10.37,2013-04-10 11:24:00,
2013-04-10 04:28:00,48.2,24.4,30.01,NE,37,0.0,0.0,39,0.00,CLR,FEW,0.00,0.0,WeatherDisplay:10.37,2013-04-10 11:28:00,
2013-04-10 04:29:00,48.0,24.2,30.01,NE,37,0.0,0.0,39,0.00,CLR,FEW,0.00,0.0,WeatherDisplay:10.37,2013-04-10 11:29:00,
2013-04-10 04:30:00,47.9,24.1,30.01,NE,37,0.0,0.0,39,0.00,CLR,FEW,0.00,0.0,WeatherDisplay:10.37,2013-04-10 11:30:00,
2013-04-10 04:34:00,48.2,22.5,30.01,NE,38,0.0,0.0,36,0.00,CLR,FEW,0.00,0.0,WeatherDisplay:10.37,2013-04-10 11:34:00,
2013-04-10 04:35:00,48.2,23.1,30.01,NE,38,0.0,0.0,37,0.00,CLR,FEW,0.00,0.0,WeatherDisplay:10.37,2013-04-10 11:35:00,
2013-04-10 04:37:00,48.0,22.9,30.01,ENE,63,0.0,0.0,37,0.00,CLR,FEW,0.00,0.0,WeatherDisplay:10.37,2013-04-10 11:37:00,
2013-04-10 04:39:00,48.0,22.9,30.01,ENE,64,0.0,0.0,37,0.00,CLR,FEW,0.00,0.0,WeatherDisplay:10.37,2013-04-10 11:39:00,
2013-04-10 04:40:00,48.0,22.9,30.01,ENE,63,0.0,0.0,37,0.00,CLR,FEW,0.00,0.0,WeatherDisplay:10.37,2013-04-10 11:40:00,
2013-04-10 04:43:00,47.7,22.7,30.01,NNE,29,0.0,0.0,37,0.00,CLR,FEW,0.00,0.0,WeatherDisplay:10.37,2013-04-10 11:43:00,
2013-04-10 04:44:00,48.3,22.5,30.01,NE,35,0.0,0.0,36,0.00,CLR,FEW,0.00,0.0,WeatherDisplay:10.37,2013-04-10 11:44:00,
2013-04-10 04:45:00,48.3,23.8,30.01,ENE,70,0.0,0.0,38,0.00,CLR,FEW,0.00,0.0,WeatherDisplay:10.37,2013-04-10 11:45:00,
2013-04-10 04:48:00,48.2,23.1,30.01,ENE,59,0.0,0.0,37,0.00,CLR,FEW,0.00,0.0,WeatherDisplay:10.37,2013-04-10 11:48:00,
2013-04-10 04:50:00,48.2,23.1,30.01,ENE,57,0.0,0.0,37,0.00,CLR,FEW,0.00,0.0,WeatherDisplay:10.37,2013-04-10 11:50:00,
2013-04-10 04:51:00,48.2,22.5,30.01,ENE,57,0.0,0.0,36,0.00,CLR,FEW,0.00,0.0,WeatherDisplay:10.37,2013-04-10 11:51:00,
2013-04-10 04:54:00,48.8,22.3,30.01,ENE,57,0.0,0.0,35,0.00,CLR,FEW,0.00,0.0,WeatherDisplay:10.37,2013-04-10 11:54:00,
2013-04-10 04:57:00,49.1,22.6,30.01,ENE,57,0.0,0.0,35,0.00,CLR,FEW,0.00,0.0,WeatherDisplay:10.37,2013-04-10 11:57:00,
2013-04-10 04:59:00,48.9,22.4,30.01,ENE,57,0.0,0.0,35,0.00,CLR,FEW,0.00,0.0,WeatherDisplay:10.37,2013-04-10 11:59:00,
2013-04-10 05:00:00,48.9,22.4,30.01,ENE,57,0.0,0.0,35,0.00,CLR,FEW,0.00,0.0,WeatherDisplay:10.37,2013-04-10 12:00:00,
2013-04-10 05:01:00,48.9,22.4,30.01,East,90,0.0,0.0,35,0.00,CLR,FEW,0.00,0.0,WeatherDisplay:10.37,2013-04-10 12:01:00,
2013-04-10 05:02:00,49.1,21.9,30.01,East,86,0.0,0.0,34,0.00,CLR,FEW,0.00,0.0,WeatherDisplay:10.37,2013-04-10 12:02:00,
2013-04-10 05:05:00,48.9,21.7,30.01,ENE,70,0.0,0.0,34,0.00,CLR,FEW,0.00,0.0,WeatherDisplay:10.37,2013-04-10 12:05:00,
2013-04-10 05:07:00,48.2,21.8,30.01,East,80,0.0,0.0,35,0.00,CLR,FEW,0.00,0.0,WeatherDisplay:10.37,2013-04-10 12:07:00,
2013-04-10 05:08:00,48.3,21.9,30.01,ENE,78,0.1,1.3,35,0.00,CLR,FEW,0.00,0.0,WeatherDisplay:10.37,2013-04-10 12:08:00,
2013-04-10 05:10:00,48.6,21.5,30.01,ESE,115,0.0,0.0,34,0.00,CLR,FEW,0.00,0.0,WeatherDisplay:10.37,2013-04-10 12:10:00,
2013-04-10 05:13:00,48.5,22.7,30.01,ESE,115,0.0,0.0,36,0.00,CLR,FEW,0.00,0.0,WeatherDisplay:10.37,2013-04-10 12:13:00,
2013-04-10 05:14:00,48.6,22.1,30.01,ESE,113,0.0,0.0,35,0.00,CLR,FEW,0.00,0.0,WeatherDisplay:10.37,2013-04-10 12:14:00,
2013-04-10 05:16:00,48.2,22.5,30.01,East,91,0.0,0.0,36,0.00,CLR,FEW,0.00,0.0,WeatherDisplay:10.37,2013-04-10 12:16:00,
2013-04-10 05:18:00,47.9,21.5,30.01,ENE,74,0.1,1.2,35,0.00,CLR,FEW,0.00,0.0,WeatherDisplay:10.37,2013-04-10 12:18:00,
2013-04-10 05:19:00,47.9,21.5,30.01,ENE,73,0.0,0.0,35,0.00,CLR,FEW,0.00,0.0,WeatherDisplay:10.37,2013-04-10 12:19:00,
2013-04-10 05:22:00,47.9,21.5,30.01,NE,36,0.5,2.6,35,0.00,CLR,FEW,0.00,0.0,WeatherDisplay:10.37,2013-04-10 12:22:00,
2013-04-10 05:23:00,48.2,21.8,30.01,East,82,0.1,1.2,35,0.00,CLR,FEW,0.00,0.0,WeatherDisplay:10.37,2013-04-10 12:23:00,
2013-04-10 05:24:00,48.2,21.8,30.01,ENE,71,0.0,0.0,35,0.00,CLR,FEW,0.00,0.0,WeatherDisplay:10.37,2013-04-10 12:24:00,
2013-04-10 05:28:00,48.8,21.6,30.01,ENE,72,0.0,0.0,34,0.00,CLR,FEW,0.00,0.0,WeatherDisplay:10.37,2013-04-10 12:28:00,
2013-04-10 05:29:00,48.8,21.6,30.01,ENE,72,0.0,0.0,34,0.00,CLR,FEW,0.00,0.0,WeatherDisplay:10.37,2013-04-10 12:29:00,
2013-04-10 05:30:00,48.8,21.6,30.01,ENE,72,0.0,0.0,34,0.00,CLR,FEW,0.00,0.0,WeatherDisplay:10.37,2013-04-10 12:30:00,
2013-04-10 05:33:00,48.8,21.6,30.01,ENE,72,0.0,0.0,34,0.00,CLR,FEW,0.00,0.0,WeatherDisplay:10.37,2013-04-10 12:33:00,
2013-04-10 05:34:00,48.8,20.9,30.01,ENE,71,0.0,0.0,33,0.00,CLR,FEW,0.00,0.0,WeatherDisplay:10.37,2013-04-10 12:34:00,
2013-04-10 05:37:00,49.1,21.2,30.01,NE,54,0.0,0.0,33,0.00,CLR,FEW,0.00,0.0,WeatherDisplay:10.37,2013-04-10 12:37:00,
2013-04-10 05:39:00,49.1,21.2,30.01,East,81,0.0,0.0,33,0.00,CLR,FEW,0.00,0.0,WeatherDisplay:10.37,2013-04-10 12:39:00,
2013-04-10 05:40:00,49.1,20.5,30.01,ESE,107,0.0,1.3,32,0.00,CLR,FEW,0.00,0.0,WeatherDisplay:10.37,2013-04-10 12:40:00,
2013-04-10 05:43:00,49.2,20.6,30.01,East,84,0.0,0.0,32,0.00,CLR,FEW,0.00,0.0,WeatherDisplay:10.37,2013-04-10 12:43:00,
2013-04-10 05:44:00,49.1,20.5,30.01,East,85,0.0,0.0,32,0.00,CLR,FEW,0.00,0.0,WeatherDisplay:10.37,2013-04-10 12:44:00,
2013-04-10 05:45:00,49.1,20.5,30.01,ESE,110,0.5,3.9,32,0.00,CLR,FEW,0.00,0.0,WeatherDisplay:10.37,2013-04-10 12:45:00,
2013-04-10 05:48:00,48.9,19.5,30.01,ESE,109,3.8,5.8,31,0.00,CLR,FEW,0.00,0.0,WeatherDisplay:10.37,2013-04-10 12:48:00,
2013-04-10 05:50:00,48.9,20.3,30.01,ESE,111,1.9,5.8,32,0.00,CLR,FEW,0.00,0.0,WeatherDisplay:10.37,2013-04-10 12:50:00,
2013-04-10 05:53:00,48.6,20.0,30.01,ESE,103,2.1,5.8,32,0.00,CLR,FEW,0.00,0.0,WeatherDisplay:10.37,2013-04-10 12:53:00,
2013-04-10 05:55:00,48.5,19.2,30.01,ESE,117,0.1,1.2,31,0.00,CLR,FEW,0.00,0.0,WeatherDisplay:10.37,2013-04-10 12:55:00,
2013-04-10 05:58:00,48.9,18.0,30.01,ESE,118,1.9,10.4,29,0.00,CLR,FEW,0.00,0.0,WeatherDisplay:10.37,2013-04-10 12:58:00,
2013-04-10 05:59:00,49.1,19.0,30.01,ESE,109,2.6,10.4,30,0.00,CLR,FEW,0.00,0.0,WeatherDisplay:10.37,2013-04-10 12:59:00,
2013-04-10 06:02:00,49.2,19.0,30.02,ESE,111,0.0,0.0,30,0.00,OVC,FEW,0.00,0.0,WeatherDisplay:10.37,2013-04-10 13:02:00,
2013-04-10 06:03:00,49.2,19.8,30.02,ESE,111,0.0,0.0,31,0.00,OVC,FEW,0.00,0.0,WeatherDisplay:10.37,2013-04-10 13:03:00,
2013-04-10 06:05:00,49.1,19.0,30.02,East,96,0.0,0.0,30,0.00,OVC,FEW,0.00,0.0,WeatherDisplay:10.37,2013-04-10 13:05:00,
2013-04-10 06:07:00,49.2,19.0,30.02,East,95,0.0,1.2,30,0.00,OVC,FEW,0.00,0.0,WeatherDisplay:10.37,2013-04-10 13:07:00,
2013-04-10 06:09:00,49.1,19.0,30.02,East,91,0.0,0.0,30,0.00,OVC,FEW,0.00,0.0,WeatherDisplay:10.37,2013-04-10 13:09:00,
2013-04-10 06:10:00,49.2,19.0,30.02,East,91,1.4,6.9,30,0.00,OVC,FEW,0.00,0.0,WeatherDisplay:10.37,2013-04-10 13:10:00,
2013-04-10 06:13:00,50.1,17.4,30.02,East,84,0.3,1.3,27,0.00,OVC,FEW,0.00,0.0,WeatherDisplay:10.37,2013-04-10 13:13:00,
2013-04-10 06:14:00,50.5,16.8,30.02,East,85,0.3,1.2,26,0.00,OVC,FEW,0.00,0.0,WeatherDisplay:10.37,2013-04-10 13:14:00,
2013-04-10 06:15:00,50.8,17.1,30.02,East,89,0.0,0.0,26,0.00,OVC,FEW,0.00,0.0,WeatherDisplay:10.37,2013-04-10 13:15:00,
2013-04-10 06:16:00,50.8,18.0,30.02,East,88,0.0,0.0,27,0.00,OVC,FEW,0.00,0.0,WeatherDisplay:10.37,2013-04-10 13:16:00,
2013-04-10 06:18:00,50.7,18.7,30.02,ENE,61,0.0,0.0,28,0.00,OVC,FEW,0.00,0.0,WeatherDisplay:10.37,2013-04-10 13:18:00,
2013-04-10 06:20:00,50.5,18.5,30.02,ENE,71,0.0,0.0,28,0.00,OVC,FEW,0.00,0.0,WeatherDisplay:10.37,2013-04-10 13:20:00,
2013-04-10 06:23:00,50.4,18.5,30.02,NNE,28,0.0,0.0,28,0.00,OVC,FEW,0.00,0.0,WeatherDisplay:10.37,2013-04-10 13:23:00,
2013-04-10 06:25:00,50.4,19.3,30.02,NE,34,0.0,0.0,29,0.00,OVC,FEW,0.00,0.0,WeatherDisplay:10.37,2013-04-10 13:25:00,
2013-04-10 06:28:00,49.9,21.2,30.02,NNE,28,0.0,0.0,32,0.00,OVC,FEW,0.00,5.3,WeatherDisplay:10.37,2013-04-10 13:28:00,
2013-04-10 06:29:00,49.8,20.3,30.02,NNE,28,0.0,0.0,31,0.00,CLR,FEW,0.00,5.3,WeatherDisplay:10.37,2013-04-10 13:29:00,
2013-04-10 06:30:00,49.6,20.9,30.02,NNE,28,0.0,0.0,32,0.00,CLR,FEW,0.00,7.3,WeatherDisplay:10.37,2013-04-10 13:30:00,
2013-04-10 06:33:00,49.1,21.9,30.03,East,91,0.0,0.0,34,0.00,SCT,FEW,0.00,7.3,WeatherDisplay:10.37,2013-04-10 13:33:00,
2013-04-10 06:35:00,48.9,22.4,30.03,NE,56,0.0,0.0,35,0.00,SCT,FEW,0.00,9.4,WeatherDisplay:10.37,2013-04-10 13:35:00,
2013-04-10 06:37:00,48.5,22.1,30.03,East,90,0.0,0.0,35,0.00,BKN,FEW,0.00,9.4,WeatherDisplay:10.37,2013-04-10 13:37:00,
2013-04-10 06:39:00,48.2,20.4,30.03,East,90,0.0,0.0,33,0.00,BKN,FEW,0.00,11.6,WeatherDisplay:10.37,2013-04-10 13:39:00,
2013-04-10 06:40:00,48.2,20.4,30.03,East,90,0.0,0.0,33,0.00,BKN,FEW,0.00,11.6,WeatherDisplay:10.37,2013-04-10 13:40:00,
2013-04-10 06:41:00,48.0,20.2,30.03,East,90,0.0,0.0,33,0.00,BKN,FEW,0.00,11.6,WeatherDisplay:10.37,2013-04-10 13:41:00,
2013-04-10 06:43:00,48.0,20.2,30.03,East,90,0.0,0.0,33,0.00,BKN,FEW,0.00,12.6,WeatherDisplay:10.37,2013-04-10 13:43:00,
2013-04-10 06:44:00,48.0,19.5,30.03,East,90,0.0,0.0,32,0.00,BKN,FEW,0.00,12.6,WeatherDisplay:10.37,2013-04-10 13:44:00,
2013-04-10 06:45:00,48.0,19.5,30.03,East,90,0.0,0.0,32,0.00,BKN,FEW,0.00,12.6,WeatherDisplay:10.37,2013-04-10 13:45:00,
2013-04-10 06:46:00,48.2,20.4,30.04,East,90,0.0,0.0,33,0.00,BKN,FEW,0.00,14.7,WeatherDisplay:10.37,2013-04-10 13:46:00,
2013-04-10 06:49:00,48.2,21.1,30.04,East,90,0.0,0.0,34,0.00,BKN,FEW,0.00,14.7,WeatherDisplay:10.37,2013-04-10 13:49:00,
2013-04-10 06:51:00,48.2,19.7,30.04,East,90,0.0,0.0,32,0.00,BKN,FEW,0.00,16.8,WeatherDisplay:10.37,2013-04-10 13:51:00,
2013-04-10 06:52:00,48.2,18.9,30.04,East,90,0.0,0.0,31,0.00,BKN,FEW,0.00,18.9,WeatherDisplay:10.37,2013-04-10 13:52:00,
2013-04-10 06:54:00,48.2,21.1,30.04,East,90,0.0,0.0,34,0.00,BKN,FEW,0.00,19.9,WeatherDisplay:10.37,2013-04-10 13:54:00,
2013-04-10 06:56:00,47.1,22.8,30.04,East,90,0.0,0.0,38,0.00,BKN,FEW,0.00,22.1,WeatherDisplay:10.37,2013-04-10 13:56:00,
2013-04-10 06:58:00,46.8,21.9,30.04,East,90,0.0,0.0,37,0.00,BKN,FEW,0.00,27.3,WeatherDisplay:10.37,2013-04-10 13:58:00,
2013-04-10 06:59:00,47.0,22.0,30.04,East,90,0.0,0.0,37,0.00,BKN,FEW,0.00,33.6,WeatherDisplay:10.37,2013-04-10 13:59:00,
2013-04-10 07:00:00,47.0,21.4,30.04,East,90,0.0,0.0,36,0.00,BKN,FEW,0.00,36.8,WeatherDisplay:10.37,2013-04-10 14:00:00,
2013-04-10 07:02:00,47.4,21.7,30.05,East,90,0.0,0.0,36,0.00,SCT,FEW,0.00,48.3,WeatherDisplay:10.37,2013-04-10 14:02:00,
2013-04-10 07:04:00,47.7,22.0,30.05,East,90,0.0,0.0,36,0.00,SCT,FEW,0.00,53.5,WeatherDisplay:10.37,2013-04-10 14:04:00,
2013-04-10 07:05:00,47.9,22.2,30.05,East,90,0.0,0.0,36,0.00,SCT,FEW,0.00,55.6,WeatherDisplay:10.37,2013-04-10 14:05:00,
2013-04-10 07:09:00,48.8,20.9,30.05,East,90,0.0,0.0,33,0.00,SCT,FEW,0.00,68.3,WeatherDisplay:10.37,2013-04-10 14:09:00,
2013-04-10 07:10:00,48.9,20.3,30.05,East,90,0.0,0.0,32,0.00,SCT,FEW,0.00,68.3,WeatherDisplay:10.37,2013-04-10 14:10:00,
2013-04-10 07:15:00,50.4,21.6,30.05,East,90,0.0,0.0,32,0.00,SCT,FEW,0.00,87.2,WeatherDisplay:10.37,2013-04-10 14:15:00,
2013-04-10 07:16:00,50.5,21.7,30.06,East,90,0.0,0.0,32,0.00,SCT,FEW,0.00,90.3,WeatherDisplay:10.37,2013-04-10 14:16:00,
2013-04-10 07:20:00,51.7,19.6,30.06,East,86,0.9,3.9,28,0.00,FEW,,0.00,107.1,WeatherDisplay:10.37,2013-04-10 14:20:00,
2013-04-10 07:21:00,51.7,19.6,30.06,East,92,3.5,9.1,28,0.00,FEW,,0.00,109.2,WeatherDisplay:10.37,2013-04-10 14:21:00,
2013-04-10 07:22:00,51.9,18.0,30.06,East,94,2.8,9.2,26,0.00,FEW,,0.00,116.5,WeatherDisplay:10.37,2013-04-10 14:22:00,
2013-04-10 07:26:00,52.3,19.3,30.06,East,86,0.0,0.0,27,0.00,FEW,,0.00,127.0,WeatherDisplay:10.37,2013-04-10 14:26:00,
2013-04-10 07:27:00,52.3,20.1,30.06,East,87,0.0,0.0,28,0.00,FEW,,0.00,127.0,WeatherDisplay:10.37,2013-04-10 14:27:00,
2013-04-10 07:32:00,52.8,22.2,30.06,East,86,0.0,0.0,30,0.00,CLR,FEW,0.00,149.1,WeatherDisplay:10.37,2013-04-10 14:32:00,
2013-04-10 07:33:00,52.8,22.2,30.06,East,86,0.0,0.0,30,0.00,CLR,FEW,0.00,149.1,WeatherDisplay:10.37,2013-04-10 14:33:00,
2013-04-10 07:38:00,53.6,22.9,30.06,East,86,0.0,0.0,30,0.00,CLR,FEW,0.00,168.0,WeatherDisplay:10.37,2013-04-10 14:38:00,
2013-04-10 07:39:00,53.8,22.2,30.06,East,86,0.0,0.0,29,0.00,CLR,FEW,0.00,173.3,WeatherDisplay:10.37,2013-04-10 14:39:00,
2013-04-10 07:43:00,53.6,22.9,30.06,East,86,0.0,0.0,30,0.00,CLR,FEW,0.00,182.7,WeatherDisplay:10.37,2013-04-10 14:43:00,
2013-04-10 07:44:00,53.6,22.1,30.06,East,86,0.0,0.0,29,0.00,CLR,FEW,0.00,190.1,WeatherDisplay:10.37,2013-04-10 14:44:00,
2013-04-10 07:45:00,53.6,20.4,30.06,East,86,0.0,0.0,27,0.00,CLR,FEW,0.00,192.2,WeatherDisplay:10.37,2013-04-10 14:45:00,
2013-04-10 07:48:00,54.1,21.7,30.06,East,86,0.0,0.0,28,0.00,CLR,FEW,0.00,201.6,WeatherDisplay:10.37,2013-04-10 14:48:00,
2013-04-10 07:49:00,54.2,22.6,30.06,East,86,0.0,0.0,29,0.00,CLR,FEW,0.00,208.9,WeatherDisplay:10.37,2013-04-10 14:49:00,
2013-04-10 07:51:00,54.7,21.3,30.06,East,85,0.0,0.0,27,0.00,CLR,FEW,0.00,212.1,WeatherDisplay:10.37,2013-04-10 14:51:00,
2013-04-10 07:53:00,54.8,20.5,30.06,East,85,0.0,0.0,26,0.00,CLR,FEW,0.00,219.4,WeatherDisplay:10.37,2013-04-10 14:53:00,
2013-04-10 07:55:00,55.0,20.7,30.06,East,85,0.0,0.0,26,0.00,CLR,FEW,0.00,224.7,WeatherDisplay:10.37,2013-04-10 14:55:00,
2013-04-10 07:56:00,55.1,22.5,30.06,East,85,0.0,0.0,28,0.00,CLR,FEW,0.00,231.0,WeatherDisplay:10.37,2013-04-10 14:56:00,
2013-04-10 07:58:00,55.1,19.9,30.06,East,85,0.0,0.0,25,0.00,CLR,FEW,0.00,236.3,WeatherDisplay:10.37,2013-04-10 14:58:00,
2013-04-10 08:01:00,55.7,20.4,30.07,East,85,0.0,0.0,25,0.00,CLR,FEW,0.00,247.8,WeatherDisplay:10.37,2013-04-10 15:01:00,
2013-04-10 08:02:00,55.9,20.5,30.07,East,85,0.0,0.0,25,0.00,CLR,FEW,0.00,248.8,WeatherDisplay:10.37,2013-04-10 15:02:00,
2013-04-10 08:04:00,56.2,20.8,30.07,East,85,0.0,0.0,25,0.00,CLR,FEW,0.00,255.2,WeatherDisplay:10.37,2013-04-10 15:04:00,
2013-04-10 08:06:00,56.6,21.1,30.07,East,85,0.0,0.0,25,0.00,CLR,FEW,0.00,265.6,WeatherDisplay:10.37,2013-04-10 15:06:00,
2013-04-10 08:08:00,57.0,20.5,30.07,East,85,0.0,0.0,24,0.00,CLR,FEW,0.00,269.9,WeatherDisplay:10.37,2013-04-10 15:08:00,
2013-04-10 08:11:00,57.8,19.1,30.07,East,85,0.0,0.0,22,0.00,CLR,FEW,0.00,284.6,WeatherDisplay:10.37,2013-04-10 15:11:00,
2013-04-10 08:14:00,58.4,22.7,30.07,East,85,0.0,0.0,25,0.00,CLR,FEW,0.00,292.9,WeatherDisplay:10.37,2013-04-10 15:14:00,
2013-04-10 08:17:00,59.0,23.2,30.07,East,85,0.0,0.0,25,0.00,CLR,FEW,0.00,304.5,WeatherDisplay:10.37,2013-04-10 15:17:00,
2013-04-10 08:18:00,59.3,22.5,30.07,East,85,0.0,0.0,24,0.00,CLR,FEW,0.00,308.7,WeatherDisplay:10.37,2013-04-10 15:18:00,
2013-04-10 08:20:00,59.6,22.7,30.07,East,85,0.0,0.0,24,0.00,CLR,FEW,0.00,313.9,WeatherDisplay:10.37,2013-04-10 15:20:00,
2013-04-10 08:22:00,60.1,21.1,30.07,East,85,0.0,0.0,22,0.00,CLR,FEW,0.00,323.4,WeatherDisplay:10.37,2013-04-10 15:22:00,
2013-04-10 08:23:00,60.2,22.2,30.07,East,85,0.0,0.0,23,0.00,CLR,FEW,0.00,326.6,WeatherDisplay:10.37,2013-04-10 15:23:00,
2013-04-10 08:25:00,60.5,21.4,30.07,East,85,0.0,0.0,22,0.00,CLR,FEW,0.00,331.8,WeatherDisplay:10.37,2013-04-10 15:25:00,
2013-04-10 08:27:00,60.5,21.4,30.07,East,85,0.0,0.0,22,0.00,CLR,FEW,0.00,341.3,WeatherDisplay:10.37,2013-04-10 15:27:00,
2013-04-10 08:28:00,60.5,20.3,30.07,East,85,0.0,0.0,21,0.00,CLR,FEW,0.00,345.4,WeatherDisplay:10.37,2013-04-10 15:28:00,
2013-04-10 08:30:00,60.2,20.1,30.07,East,85,0.0,0.0,21,0.00,CLR,FEW,0.00,354.9,WeatherDisplay:10.37,2013-04-10 15:30:00,
2013-04-10 08:31:00,60.2,20.1,30.07,East,85,0.0,0.0,21,0.00,CLR,FEW,0.00,354.9,WeatherDisplay:10.37,2013-04-10 15:31:00,
2013-04-10 08:32:00,60.1,18.8,30.07,East,85,0.0,0.0,20,0.00,CLR,FEW,0.00,362.3,WeatherDisplay:10.37,2013-04-10 15:32:00,
2013-04-10 08:34:00,59.9,18.7,30.07,East,85,0.0,0.0,20,0.00,CLR,FEW,0.00,367.5,WeatherDisplay:10.37,2013-04-10 15:34:00,
2013-04-10 08:35:00,60.1,21.1,30.07,East,85,0.0,0.0,22,0.00,CLR,FEW,0.00,374.9,WeatherDisplay:10.37,2013-04-10 15:35:00,
2013-04-10 08:36:00,60.2,21.2,30.07,East,85,0.0,0.0,22,0.00,CLR,FEW,0.00,374.9,WeatherDisplay:10.37,2013-04-10 15:36:00,
2013-04-10 08:37:00,60.5,20.3,30.07,East,85,0.0,0.0,21,0.00,CLR,FEW,0.00,380.1,WeatherDisplay:10.37,2013-04-10 15:37:00,
2013-04-10 08:41:00,60.7,21.6,30.07,East,85,0.0,0.0,22,0.00,CLR,FEW,0.00,392.7,WeatherDisplay:10.37,2013-04-10 15:41:00,
2013-04-10 08:42:00,60.7,21.6,30.07,East,85,0.0,0.0,22,0.00,CLR,FEW,0.00,396.9,WeatherDisplay:10.37,2013-04-10 15:42:00,
2013-04-10 08:43:00,60.9,21.8,30.07,East,85,0.0,0.0,22,0.00,CLR,FEW,0.00,399.0,WeatherDisplay:10.37,2013-04-10 15:43:00,
2013-04-10 08:46:00,60.9,20.7,30.08,East,85,0.0,0.0,21,0.00,CLR,FEW,0.00,411.6,WeatherDisplay:10.37,2013-04-10 15:46:00,
2013-04-10 08:48:00,60.9,19.5,30.08,East,85,0.0,0.0,20,0.00,CLR,FEW,0.00,416.9,WeatherDisplay:10.37,2013-04-10 15:48:00,
2013-04-10 08:49:00,60.9,21.8,30.08,East,85,0.0,0.0,22,0.00,CLR,FEW,0.00,424.2,WeatherDisplay:10.37,2013-04-10 15:49:00,
2013-04-10 08:52:00,60.9,23.8,30.08,East,85,0.0,0.0,24,0.00,CLR,FEW,0.00,433.6,WeatherDisplay:10.37,2013-04-10 15:52:00,
2013-04-10 08:53:00,60.9,21.8,30.08,East,85,0.0,0.0,22,0.00,CLR,FEW,0.00,438.9,WeatherDisplay:10.37,2013-04-10 15:53:00,
2013-04-10 08:54:00,60.7,23.7,30.08,East,85,0.0,0.0,24,0.00,CLR,FEW,0.00,438.9,WeatherDisplay:10.37,2013-04-10 15:54:00,
2013-04-10 08:58:00,60.9,24.8,30.08,East,86,0.0,0.0,25,0.00,CLR,FEW,0.00,457.8,WeatherDisplay:10.37,2013-04-10 15:58:00,
2013-04-10 08:59:00,60.9,24.8,30.08,East,86,0.0,0.0,25,0.00,CLR,FEW,0.00,457.8,WeatherDisplay:10.37,2013-04-10 15:59:00,
2013-04-10 09:00:00,60.9,24.8,30.08,East,86,0.0,0.0,25,0.00,CLR,FEW,0.00,460.9,WeatherDisplay:10.37,2013-04-10 16:00:00,
2013-04-10 09:02:00,61.2,23.1,30.08,East,86,0.0,0.0,23,0.00,CLR,FEW,0.00,468.3,WeatherDisplay:10.37,2013-04-10 16:02:00,
2013-04-10 09:03:00,61.2,23.1,30.08,East,86,0.0,0.0,23,0.00,CLR,FEW,0.00,476.7,WeatherDisplay:10.37,2013-04-10 16:03:00,
2013-04-10 09:05:00,61.5,22.3,30.08,East,86,0.0,0.0,22,0.00,CLR,FEW,0.00,477.8,WeatherDisplay:10.37,2013-04-10 16:05:00,
2013-04-10 09:08:00,62.1,22.8,30.08,East,86,0.0,0.0,22,0.00,CLR,FEW,0.00,491.4,WeatherDisplay:10.37,2013-04-10 16:08:00,
2013-04-10 09:09:00,62.1,22.8,30.08,East,86,0.0,0.0,22,0.00,CLR,FEW,0.00,494.6,WeatherDisplay:10.37,2013-04-10 16:09:00,
2013-04-10 09:10:00,62.4,23.0,30.08,East,86,0.0,0.0,22,0.00,CLR,FEW,0.00,496.6,WeatherDisplay:10.37,2013-04-10 16:10:00,
2013-04-10 09:13:00,62.9,24.5,30.08,East,86,0.0,0.0,23,0.00,CLR,FEW,0.00,507.1,WeatherDisplay:10.37,2013-04-10 16:13:00,
2013-04-10 09:14:00,62.9,24.5,30.08,East,86,0.0,0.0,23,0.00,CLR,FEW,0.00,511.4,WeatherDisplay:10.37,2013-04-10 16:14:00,
2013-04-10 09:15:00,63.1,24.7,30.08,East,86,0.0,0.0,23,0.00,CLR,FEW,0.00,514.5,WeatherDisplay:10.37,2013-04-10 16:15:00,
2013-04-10 09:18:00,63.2,21.4,30.07,East,86,0.0,0.0,20,0.00,CLR,FEW,0.00,526.0,WeatherDisplay:10.37,2013-04-10 16:18:00,
2013-04-10 09:20:00,63.2,21.4,30.07,East,86,0.0,0.0,20,0.00,CLR,FEW,0.00,533.4,WeatherDisplay:10.37,2013-04-10 16:20:00,
2013-04-10 09:21:00,63.2,20.2,30.07,East,86,0.0,0.0,19,0.00,CLR,FEW,0.00,540.8,WeatherDisplay:10.37,2013-04-10 16:21:00,
2013-04-10 09:23:00,63.2,21.4,30.07,South,182,0.0,0.0,20,0.00,CLR,FEW,0.00,542.9,WeatherDisplay:10.37,2013-04-10 16:23:00,
2013-04-10 09:26:00,63.2,21.4,30.07,South,182,0.0,0.0,20,0.00,CLR,FEW,0.00,553.4,WeatherDisplay:10.37,2013-04-10 16:26:00,
2013-04-10 09:27:00,63.2,20.2,30.07,South,182,0.0,0.0,19,0.00,CLR,FEW,0.00,559.6,WeatherDisplay:10.37,2013-04-10 16:27:00,
2013-04-10 09:28:00,63.2,20.2,30.07,South,182,0.0,0.0,19,0.00,CLR,FEW,0.00,559.6,WeatherDisplay:10.37,2013-04-10 16:28:00,
2013-04-10 09:32:00,63.2,20.2,30.08,South,184,0.0,0.0,19,0.00,CLR,FEW,0.00,572.3,WeatherDisplay:10.37,2013-04-10 16:32:00,
2013-04-10 09:33:00,63.4,20.4,30.08,South,185,0.0,0.0,19,0.00,CLR,FEW,0.00,574.4,WeatherDisplay:10.37,2013-04-10 16:33:00,
2013-04-10 09:34:00,63.4,19.1,30.08,South,185,0.0,0.0,18,0.00,CLR,FEW,0.00,579.6,WeatherDisplay:10.37,2013-04-10 16:34:00,
2013-04-10 09:37:00,64.0,19.6,30.08,South,185,0.0,0.0,18,0.00,CLR,FEW,0.00,589.0,WeatherDisplay:10.37,2013-04-10 16:37:00,
2013-04-10 09:38:00,64.5,20.0,30.08,South,185,0.0,0.0,18,0.00,CLR,FEW,0.00,591.1,WeatherDisplay:10.37,2013-04-10 16:38:00,
2013-04-10 09:39:00,65.0,20.4,30.08,South,185,0.0,0.0,18,0.00,CLR,FEW,0.00,598.5,WeatherDisplay:10.37,2013-04-10 16:39:00,
2013-04-10 09:40:00,65.2,19.2,30.08,South,185,0.0,0.0,17,0.00,CLR,FEW,0.00,599.5,WeatherDisplay:10.37,2013-04-10 16:40:00,
2013-04-10 09:42:00,65.5,18.1,30.08,South,185,0.0,0.0,16,0.00,CLR,FEW,0.00,606.9,WeatherDisplay:10.37,2013-04-10 16:42:00,
2013-04-10 09:43:00,65.5,19.5,30.08,South,185,0.0,0.0,17,0.00,CLR,FEW,0.00,609.0,WeatherDisplay:10.37,2013-04-10 16:43:00,
2013-04-10 09:45:00,65.5,18.1,30.08,SSE,165,0.0,0.0,16,0.00,CLR,FEW,0.00,616.4,WeatherDisplay:10.37,2013-04-10 16:45:00,
2013-04-10 09:48:00,65.5,18.1,30.08,South,180,0.0,0.0,16,0.00,CLR,FEW,0.00,623.7,WeatherDisplay:10.37,2013-04-10 16:48:00,
2013-04-10 09:49:00,65.5,15.0,30.08,South,180,0.0,0.0,14,0.00,CLR,FEW,0.00,627.9,WeatherDisplay:10.37,2013-04-10 16:49:00,
2013-04-10 09:51:00,65.3,16.4,30.08,South,180,0.0,0.0,15,0.00,CLR,FEW,0.00,636.3,WeatherDisplay:10.37,2013-04-10 16:51:00,
2013-04-10 09:55:00,65.3,17.9,30.08,South,177,0.0,0.0,16,0.00,CLR,FEW,0.00,643.6,WeatherDisplay:10.37,2013-04-10 16:55:00,
2013-04-10 09:56:00,65.5,16.6,30.08,South,180,0.0,0.0,15,0.00,CLR,FEW,0.00,647.9,WeatherDisplay:10.37,2013-04-10 16:56:00,
2013-04-10 10:00:00,65.5,16.6,30.08,West,266,0.0,0.0,15,0.00,CLR,FEW,0.00,660.5,WeatherDisplay:10.37,2013-04-10 17:00:00,
2013-04-10 10:02:00,65.5,16.6,30.08,West,266,0.0,0.0,15,0.00,CLR,FEW,0.00,666.8,WeatherDisplay:10.37,2013-04-10 17:02:00,
2013-04-10 10:05:00,65.6,16.6,30.08,West,266,0.0,0.0,15,0.00,CLR,FEW,0.00,681.5,WeatherDisplay:10.37,2013-04-10 17:05:00,
2013-04-10 10:07:00,66.0,18.5,30.08,West,266,0.0,0.0,16,0.00,CLR,FEW,0.00,681.5,WeatherDisplay:10.37,2013-04-10 17:07:00,
2013-04-10 10:08:00,66.1,17.0,30.08,West,266,0.0,0.0,15,0.00,CLR,FEW,0.00,684.6,WeatherDisplay:10.37,2013-04-10 17:08:00,
2013-04-10 10:12:00,67.3,16.4,30.08,West,266,0.0,0.0,14,0.00,CLR,FEW,0.00,697.2,WeatherDisplay:10.37,2013-04-10 17:12:00,
2013-04-10 10:14:00,67.4,14.8,30.08,West,266,0.0,0.0,13,0.00,CLR,FEW,0.00,701.4,WeatherDisplay:10.37,2013-04-10 17:14:00,
2013-04-10 10:18:00,67.6,13.1,30.08,West,266,0.0,0.0,12,0.00,CLR,FEW,0.00,716.1,WeatherDisplay:10.37,2013-04-10 17:18:00,
2013-04-10 10:20:00,67.6,16.6,30.08,West,266,0.0,0.0,14,0.00,CLR,FEW,0.00,720.3,WeatherDisplay:10.37,2013-04-10 17:20:00,
2013-04-10 10:23:00,67.6,14.9,30.08,West,266,0.0,0.0,13,0.00,CLR,FEW,0.00,728.7,WeatherDisplay:10.37,2013-04-10 17:23:00,
2013-04-10 10:25:00,67.8,11.3,30.08,West,265,0.0,0.0,11,0.00,CLR,FEW,0.00,735.0,WeatherDisplay:10.37,2013-04-10 17:25:00,
2013-04-10 10:26:00,67.9,11.4,30.08,West,265,0.0,0.0,11,0.00,CLR,FEW,0.00,735.0,WeatherDisplay:10.37,2013-04-10 17:26:00,
2013-04-10 10:27:00,68.1,17.0,30.08,West,265,0.0,0.0,14,0.00,CLR,FEW,0.00,738.1,WeatherDisplay:10.37,2013-04-10 17:27:00,
2013-04-10 10:28:00,68.3,18.8,30.08,West,265,0.0,0.0,15,0.00,CLR,FEW,0.00,743.4,WeatherDisplay:10.37,2013-04-10 17:28:00,
2013-04-10 10:32:00,68.8,15.9,30.07,West,266,0.0,0.0,13,0.00,CLR,FEW,0.00,752.9,WeatherDisplay:10.37,2013-04-10 17:32:00,
2013-04-10 10:33:00,68.8,15.9,30.07,West,266,0.0,0.0,13,0.00,CLR,FEW,0.00,752.9,WeatherDisplay:10.37,2013-04-10 17:33:00,
2013-04-10 10:34:00,68.9,14.1,30.07,West,266,0.0,0.0,12,0.00,CLR,FEW,0.00,758.1,WeatherDisplay:10.37,2013-04-10 17:34:00,
2013-04-10 10:38:00,69.3,14.4,30.07,West,266,0.0,0.0,12,0.00,CLR,FEW,0.00,765.5,WeatherDisplay:10.37,2013-04-10 17:38:00,
2013-04-10 10:39:00,69.4,18.1,30.07,West,266,0.0,0.0,14,0.00,CLR,FEW,0.00,769.6,WeatherDisplay:10.37,2013-04-10 17:39:00,
2013-04-10 10:40:00,69.4,18.1,30.07,West,266,0.0,0.0,14,0.00,CLR,FEW,0.00,769.6,WeatherDisplay:10.37,2013-04-10 17:40:00,
2013-04-10 10:44:00,69.1,21.0,30.07,WSW,248,0.0,6.9,16,0.00,CLR,FEW,0.00,782.3,WeatherDisplay:10.37,2013-04-10 17:44:00,
2013-04-10 10:45:00,69.1,22.4,30.07,WSW,255,0.0,0.0,17,0.00,CLR,FEW,0.00,784.4,WeatherDisplay:10.37,2013-04-10 17:45:00,
2013-04-10 10:49:00,68.9,16.0,30.07,WSW,248,0.0,0.0,13,0.00,CLR,FEW,0.00,793.8,WeatherDisplay:10.37,2013-04-10 17:49:00,
2013-04-10 10:50:00,68.9,16.0,30.07,SW,218,0.7,3.9,13,0.00,CLR,FEW,0.00,799.0,WeatherDisplay:10.37,2013-04-10 17:50:00,
2013-04-10 10:51:00,68.9,16.0,30.07,SW,218,0.7,3.5,13,0.00,CLR,FEW,0.00,799.0,WeatherDisplay:10.37,2013-04-10 17:51:00,
2013-04-10 10:55:00,68.4,13.7,30.07,SSW,204,1.3,5.8,12,0.00,CLR,FEW,0.00,808.5,WeatherDisplay:10.37,2013-04-10 17:55:00,
2013-04-10 10:56:00,68.4,15.6,30.07,SSW,204,0.0,6.9,13,0.00,CLR,FEW,0.00,808.5,WeatherDisplay:10.37,2013-04-10 17:56:00,
2013-04-10 11:00:00,68.9,17.7,30.07,SSW,204,0.1,1.2,14,0.00,CLR,FEW,0.00,819.0,WeatherDisplay:10.37,2013-04-10 18:00:00,
2013-04-10 11:01:00,69.1,17.8,30.07,South,188,0.6,5.8,14,0.00,CLR,FEW,0.00,818.0,WeatherDisplay:10.37,2013-04-10 18:01:00,
2013-04-10 11:02:00,69.1,16.1,30.07,SW,217,0.8,3.5,13,0.00,CLR,FEW,0.00,821.1,WeatherDisplay:10.37,2013-04-10 18:02:00,
2013-04-10 11:04:00,69.3,14.4,30.07,WSW,243,0.0,3.5,12,0.00,CLR,FEW,0.00,827.4,WeatherDisplay:10.37,2013-04-10 18:04:00,
2013-04-10 11:05:00,69.3,16.3,30.07,WSW,243,0.0,0.0,13,0.00,CLR,FEW,0.00,828.5,WeatherDisplay:10.37,2013-04-10 18:05:00,
2013-04-10 11:06:00,69.3,16.3,30.07,WSW,244,1.7,5.8,13,0.00,CLR,FEW,0.00,830.5,WeatherDisplay:10.37,2013-04-10 18:06:00,
2013-04-10 11:07:00,69.3,18.0,30.07,WSW,248,6.8,8.1,14,0.00,CLR,FEW,0.00,832.6,WeatherDisplay:10.37,2013-04-10 18:07:00,
2013-04-10 11:09:00,69.3,18.0,30.07,West,265,4.5,7.8,14,0.00,CLR,FEW,0.00,835.8,WeatherDisplay:10.37,2013-04-10 18:09:00,
2013-04-10 11:12:00,69.1,17.8,30.07,WSW,246,0.1,3.5,14,0.00,CLR,FEW,0.00,842.1,WeatherDisplay:10.37,2013-04-10 18:12:00,
2013-04-10 11:13:00,69.1,14.3,30.07,WSW,246,0.6,5.8,12,0.00,CLR,FEW,0.00,843.1,WeatherDisplay:10.37,2013-04-10 18:13:00,
2013-04-10 11:15:00,69.3,14.4,30.07,WSW,246,0.0,0.0,12,0.00,CLR,FEW,0.00,847.4,WeatherDisplay:10.37,2013-04-10 18:15:00,
2013-04-10 11:16:00,69.4,16.4,30.07,WSW,247,0.0,0.0,13,0.00,CLR,FEW,0.00,847.4,WeatherDisplay:10.37,2013-04-10 18:16:00,
2013-04-10 11:17:00,69.4,16.4,30.07,WSW,246,0.0,0.0,13,0.00,CLR,FEW,0.00,852.6,WeatherDisplay:10.37,2013-04-10 18:17:00,
2013-04-10 11:18:00,69.8,18.4,30.07,WSW,246,0.0,0.0,14,0.00,CLR,FEW,0.00,852.6,WeatherDisplay:10.37,2013-04-10 18:18:00,
2013-04-10 11:20:00,70.1,18.6,30.07,WSW,244,1.0,0.0,14,0.00,CLR,FEW,0.00,852.6,WeatherDisplay:10.37,2013-04-10 18:20:00,
2013-04-10 11:22:00,70.6,17.3,30.07,WSW,248,8.1,11.7,13,0.00,CLR,FEW,0.00,864.1,WeatherDisplay:10.37,2013-04-10 18:22:00,
2013-04-10 11:23:00,70.6,13.5,30.07,WSW,246,8.9,11.5,11,0.00,CLR,FEW,0.00,862.0,WeatherDisplay:10.37,2013-04-10 18:23:00,
2013-04-10 11:24:00,70.6,17.3,30.07,WSW,245,2.0,6.9,13,0.00,CLR,FEW,0.00,864.1,WeatherDisplay:10.37,2013-04-10 18:24:00,
2013-04-10 11:26:00,70.6,13.5,30.07,WSW,245,0.0,0.0,11,0.00,CLR,FEW,0.00,869.4,WeatherDisplay:10.37,2013-04-10 18:26:00,
2013-04-10 11:28:00,70.8,13.6,30.07,WSW,244,0.0,0.0,11,0.00,CLR,FEW,0.00,871.5,WeatherDisplay:10.37,2013-04-10 18:28:00,
2013-04-10 11:29:00,70.8,13.6,30.07,WSW,243,0.0,0.0,11,0.00,CLR,FEW,0.00,874.6,WeatherDisplay:10.37,2013-04-10 18:29:00,
2013-04-10 11:33:00,71.3,14.0,30.06,WSW,243,0.0,0.0,11,0.00,CLR,FEW,0.00,882.0,WeatherDisplay:10.37,2013-04-10 18:33:00,
2013-04-10 11:34:00,71.3,16.0,30.06,WSW,242,0.0,0.0,12,0.00,CLR,FEW,0.00,882.0,WeatherDisplay:10.37,2013-04-10 18:34:00,
2013-04-10 11:38:00,71.6,14.2,30.06,West,266,0.0,0.0,11,0.00,CLR,FEW,0.00,891.5,WeatherDisplay:10.37,2013-04-10 18:38:00,
2013-04-10 11:39:00,71.6,14.2,30.06,West,266,0.0,0.0,11,0.00,CLR,FEW,0.00,891.5,WeatherDisplay:10.37,2013-04-10 18:39:00,
2013-04-10 11:40:00,71.8,14.4,30.06,West,266,0.0,0.0,11,0.00,CLR,FEW,0.00,891.5,WeatherDisplay:10.37,2013-04-10 18:40:00,
2013-04-10 11:41:00,72.0,12.4,30.06,WSW,242,0.0,0.0,10,0.00,CLR,FEW,0.00,896.7,WeatherDisplay:10.37,2013-04-10 18:41:00,
2013-04-10 11:44:00,72.0,12.4,30.06,WSW,242,0.0,0.0,10,0.00,CLR,FEW,0.00,898.8,WeatherDisplay:10.37,2013-04-10 18:44:00,
2013-04-10 11:45:00,72.0,16.6,30.06,WSW,242,0.0,0.0,12,0.00,CLR,FEW,0.00,900.9,WeatherDisplay:10.37,2013-04-10 18:45:00,
2013-04-10 11:47:00,72.1,16.6,30.06,WSW,242,0.0,0.0,12,0.00,CLR,FEW,0.00,904.0,WeatherDisplay:10.37,2013-04-10 18:47:00,
2013-04-10 11:49:00,72.1,12.5,30.06,South,191,1.2,5.8,10,0.00,CLR,FEW,0.00,910.4,WeatherDisplay:10.37,2013-04-10 18:49:00,
2013-04-10 11:50:00,72.1,12.5,30.06,SW,229,1.0,0.0,10,0.00,CLR,FEW,0.00,910.4,WeatherDisplay:10.37,2013-04-10 18:50:00,
2013-04-10 11:53:00,71.8,14.4,30.06,SSW,198,0.9,6.9,11,0.00,CLR,FEW,0.00,911.4,WeatherDisplay:10.37,2013-04-10 18:53:00,
2013-04-10 11:55:00,72.0,14.6,30.06,WSW,246,4.4,10.4,11,0.00,CLR,FEW,0.00,911.4,WeatherDisplay:10.37,2013-04-10 18:55:00,
2013-04-10 11:56:00,72.1,14.6,30.06,South,184,4.3,10.4,11,0.00,CLR,FEW,0.00,913.5,WeatherDisplay:10.37,2013-04-10 18:56:00,
2013-04-10 11:57:00,72.1,12.5,30.06,SSW,200,1.7,6.9,10,0.00,CLR,FEW,0.00,915.6,WeatherDisplay:10.37,2013-04-10 18:57:00,
2013-04-10 11:58:00,72.0,12.4,30.06,SW,216,7.7,9.2,10,0.00,CLR,FEW,0.00,915.6,WeatherDisplay:10.37,2013-04-10 18:58:00,
2013-04-10 12:02:00,72.0,12.4,30.06,WSW,244,8.4,11.5,10,0.00,CLR,FEW,0.00,917.7,WeatherDisplay:10.37,2013-04-10 19:02:00,
2013-04-10 12:03:00,72.3,14.8,30.06,SSW,193,6.9,9.1,11,0.00,CLR,FEW,0.00,918.8,WeatherDisplay:10.37,2013-04-10 19:03:00,
2013-04-10 12:04:00,72.0,10.0,30.06,SSW,213,8.2,11.5,9,0.00,CLR,FEW,0.00,923.0,WeatherDisplay:10.37,2013-04-10 19:04:00,
2013-04-10 12:08:00,71.8,9.9,30.06,SSW,201,0.0,0.0,9,0.00,CLR,FEW,0.00,926.1,WeatherDisplay:10.37,2013-04-10 19:08:00,
2013-04-10 12:09:00,72.0,14.6,30.06,SSW,202,0.0,0.0,11,0.00,CLR,FEW,0.00,926.1,WeatherDisplay:10.37,2013-04-10 19:09:00,
2013-04-10 12:10:00,72.3,16.8,30.06,WSW,247,5.4,9.2,12,0.00,CLR,FEW,0.00,926.1,WeatherDisplay:10.37,2013-04-10 19:10:00,
2013-04-10 12:13:00,72.7,10.5,30.06,SSW,204,1.7,5.8,9,0.00,CLR,FEW,0.00,928.2,WeatherDisplay:10.37,2013-04-10 19:13:00,
2013-04-10 12:14:00,72.7,10.5,30.06,SSW,203,2.2,5.8,9,0.00,CLR,FEW,0.00,928.2,WeatherDisplay:10.37,2013-04-10 19:14:00,
2013-04-10 12:18:00,72.5,12.8,30.06,West,272,0.5,0.0,10,0.00,CLR,FEW,0.00,935.5,WeatherDisplay:10.37,2013-04-10 19:18:00,
2013-04-10 12:19:00,72.5,12.8,30.06,West,272,0.5,3.5,10,0.00,CLR,FEW,0.00,935.5,WeatherDisplay:10.37,2013-04-10 19:19:00,
2013-04-10 12:20:00,72.5,12.8,30.06,SW,233,0.0,0.0,10,0.00,CLR,FEW,0.00,935.5,WeatherDisplay:10.37,2013-04-10 19:20:00,
2013-04-10 12:23:00,73.2,10.9,30.06,SSW,196,0.6,0.0,9,0.00,CLR,FEW,0.00,940.8,WeatherDisplay:10.37,2013-04-10 19:23:00,
2013-04-10 12:24:00,73.2,10.9,30.06,WSW,245,1.8,5.8,9,0.00,CLR,FEW,0.00,940.8,WeatherDisplay:10.37,2013-04-10 19:24:00,
2013-04-10 12:25:00,73.2,10.9,30.06,SSW,203,1.2,6.9,9,0.00,CLR,FEW,0.00,940.8,WeatherDisplay:10.37,2013-04-10 19:25:00,
2013-04-10 12:27:00,73.0,10.8,30.06,WSW,242,2.4,9.2,9,0.00,CLR,FEW,0.00,940.8,WeatherDisplay:10.37,2013-04-10 19:27:00,
2013-04-10 12:29:00,73.3,13.4,30.06,SW,222,0.4,3.9,10,0.00,CLR,FEW,0.00,942.9,WeatherDisplay:10.37,2013-04-10 19:29:00,
2013-04-10 12:30:00,73.5,15.7,30.06,WSW,251,0.3,3.5,11,0.00,CLR,FEW,0.00,945.0,WeatherDisplay:10.37,2013-04-10 19:30:00,
2013-04-10 12:32:00,73.9,11.4,30.06,SSW,202,7.1,9.1,9,0.00,CLR,FEW,0.00,945.0,WeatherDisplay:10.37,2013-04-10 19:32:00,
2013-04-10 12:35:00,73.5,8.5,30.06,SE,136,2.1,6.9,8,0.00,CLR,FEW,0.00,945.0,WeatherDisplay:10.37,2013-04-10 19:35:00,
2013-04-10 12:36:00,73.5,11.1,30.06,SSE,149,0.8,6.5,9,0.00,CLR,FEW,0.00,947.1,WeatherDisplay:10.37,2013-04-10 19:36:00,
2013-04-10 12:38:00,73.5,13.5,30.06,SSW,192,1.1,6.9,10,0.00,CLR,FEW,0.00,947.1,WeatherDisplay:10.37,2013-04-10 19:38:00,
2013-04-10 12:40:00,73.7,8.7,30.06,South,188,6.0,9.2,8,0.00,CLR,FEW,0.00,949.2,WeatherDisplay:10.37,2013-04-10 19:40:00,
2013-04-10 12:42:00,73.5,8.5,30.06,SSW,192,9.4,9.4,8,0.00,CLR,FEW,0.00,949.2,WeatherDisplay:10.37,2013-04-10 19:42:00,
2013-04-10 12:43:00,73.0,13.1,30.06,SW,236,8.5,13.8,10,0.00,CLR,FEW,0.00,949.2,WeatherDisplay:10.37,2013-04-10 19:43:00,
2013-04-10 12:45:00,73.2,15.5,30.06,WSW,247,5.8,9.2,11,0.00,CLR,FEW,0.00,950.3,WeatherDisplay:10.37,2013-04-10 19:45:00,
2013-04-10 12:47:00,73.7,8.7,30.05,WSW,242,9.7,11.5,8,0.00,CLR,FEW,0.00,952.4,WeatherDisplay:10.37,2013-04-10 19:47:00,
2013-04-10 12:48:00,73.9,8.8,30.05,WSW,239,8.1,9.2,8,0.00,CLR,FEW,0.00,952.4,WeatherDisplay:10.37,2013-04-10 19:48:00,
2013-04-10 12:49:00,74.0,8.9,30.05,WSW,244,7.0,10.4,8,0.00,CLR,FEW,0.00,950.3,WeatherDisplay:10.37,2013-04-10 19:49:00,
2013-04-10 12:50:00,74.2,16.3,30.05,WSW,245,1.6,9.2,11,0.00,CLR,FEW,0.00,950.3,WeatherDisplay:10.37,2013-04-10 19:50:00,
2013-04-10 12:52:00,74.4,9.2,30.05,West,267,3.3,3.5,8,0.00,CLR,FEW,0.00,952.4,WeatherDisplay:10.37,2013-04-10 19:52:00,
2013-04-10 12:54:00,74.4,9.2,30.05,West,267,0.0,3.5,8,0.00,CLR,FEW,0.00,952.4,WeatherDisplay:10.37,2013-04-10 19:54:00,
2013-04-10 12:56:00,74.2,6.1,30.05,West,268,0.0,0.0,7,0.00,CLR,FEW,0.00,954.5,WeatherDisplay:10.37,2013-04-10 19:56:00,
2013-04-10 12:57:00,74.4,14.2,30.05,WSW,243,4.4,5.2,10,0.00,CLR,FEW,0.00,956.5,WeatherDisplay:10.37,2013-04-10 19:57:00,
2013-04-10 13:00:00,74.7,9.4,30.05,WSW,240,6.6,8.1,8,0.00,CLR,FEW,0.00,954.5,WeatherDisplay:10.37,2013-04-10 20:00:00,
2013-04-10 13:01:00,75.1,12.4,30.04,WSW,258,6.4,8.1,9,0.00,CLR,FEW,0.00,956.5,WeatherDisplay:10.37,2013-04-10 20:01:00,
2013-04-10 13:03:00,75.4,7.0,30.04,WSW,247,2.6,6.9,7,0.00,CLR,FEW,0.00,957.6,WeatherDisplay:10.37,2013-04-10 20:03:00,
2013-04-10 13:05:00,75.1,6.7,30.04,WSW,238,0.0,0.0,7,0.00,CLR,FEW,0.00,957.6,WeatherDisplay:10.37,2013-04-10 20:05:00,
2013-04-10 13:06:00,75.3,6.9,30.04,WSW,238,0.0,0.0,7,0.00,CLR,FEW,0.00,956.5,WeatherDisplay:10.37,2013-04-10 20:06:00,
2013-04-10 13:07:00,75.1,6.7,30.04,SSW,199,0.3,5.8,7,0.00,CLR,FEW,0.00,956.5,WeatherDisplay:10.37,2013-04-10 20:07:00,
2013-04-10 13:08:00,74.9,6.6,30.04,SSW,193,5.2,7.8,7,0.00,CLR,FEW,0.00,956.5,WeatherDisplay:10.37,2013-04-10 20:08:00,
2013-04-10 13:10:00,74.2,6.1,30.04,SSW,211,0.0,1.2,7,0.00,CLR,FEW,0.00,959.7,WeatherDisplay:10.37,2013-04-10 20:10:00,
2013-04-10 13:11:00,74.2,6.1,30.04,SSW,211,0.0,0.0,7,0.00,CLR,FEW,0.00,959.7,WeatherDisplay:10.37,2013-04-10 20:11:00,
2013-04-10 13:13:00,74.2,6.1,30.04,SSW,211,0.0,0.0,7,0.00,CLR,FEW,0.00,954.5,WeatherDisplay:10.37,2013-04-10 20:13:00,
2013-04-10 13:17:00,74.4,6.2,30.04,SSW,196,0.0,0.0,7,0.00,CLR,FEW,0.00,954.5,WeatherDisplay:10.37,2013-04-10 20:17:00,
2013-04-10 13:18:00,74.2,6.1,30.04,SSE,167,0.1,2.6,7,0.00,CLR,FEW,0.00,954.5,WeatherDisplay:10.37,2013-04-10 20:18:00,
2013-04-10 13:23:00,74.7,9.4,30.04,WSW,248,2.9,8.1,8,0.00,CLR,FEW,0.00,950.3,WeatherDisplay:10.37,2013-04-10 20:23:00,
2013-04-10 13:24:00,74.9,9.6,30.04,WSW,249,1.7,6.9,8,0.00,CLR,FEW,0.00,952.4,WeatherDisplay:10.37,2013-04-10 20:24:00,
2013-04-10 13:25:00,75.4,12.6,30.04,WSW,248,0.0,0.0,9,0.00,CLR,FEW,0.00,950.3,WeatherDisplay:10.37,2013-04-10 20:25:00,
2013-04-10 13:28:00,75.4,9.9,30.04,WSW,252,0.0,0.0,8,0.00,CLR,FEW,0.00,952.4,WeatherDisplay:10.37,2013-04-10 20:28:00,
2013-04-10 13:30:00,75.4,12.6,30.04,South,190,1.4,6.5,9,0.00,CLR,FEW,0.00,950.3,WeatherDisplay:10.37,2013-04-10 20:30:00,
2013-04-10 13:31:00,75.3,6.9,30.03,SSW,200,3.5,8.1,7,0.00,CLR,FEW,0.00,950.3,WeatherDisplay:10.37,2013-04-10 20:31:00,
2013-04-10 13:33:00,75.3,3.5,30.03,SSW,201,3.9,6.9,6,0.00,CLR,FEW,0.00,950.3,WeatherDisplay:10.37,2013-04-10 20:33:00,
2013-04-10 13:35:00,75.3,6.9,30.03,SSW,211,3.9,6.9,7,0.00,CLR,FEW,0.00,947.1,WeatherDisplay:10.37,2013-04-10 20:35:00,
2013-04-10 13:37:00,74.7,6.4,30.03,SW,216,4.1,11.5,7,0.00,CLR,FEW,0.00,947.1,WeatherDisplay:10.37,2013-04-10 20:37:00,
2013-04-10 13:40:00,74.9,6.6,30.03,SE,136,0.0,0.0,7,0.00,CLR,FEW,0.00,939.8,WeatherDisplay:10.37,2013-04-10 20:40:00,
2013-04-10 13:42:00,75.1,3.4,30.03,SSW,195,0.0,0.0,6,0.00,CLR,FEW,0.00,940.8,WeatherDisplay:10.37,2013-04-10 20:42:00,
2013-04-10 13:43:00,75.1,6.7,30.03,SSW,195,0.2,1.3,7,0.00,CLR,FEW,0.00,940.8,WeatherDisplay:10.37,2013-04-10 20:43:00,
2013-04-10 13:44:00,75.4,7.0,30.03,SSW,210,2.3,6.9,7,0.00,CLR,FEW,0.00,937.6,WeatherDisplay:10.37,2013-04-10 20:44:00,
2013-04-10 13:45:00,75.6,7.1,30.03,SW,220,1.6,6.9,7,0.00,CLR,FEW,0.00,937.6,WeatherDisplay:10.37,2013-04-10 20:45:00,
2013-04-10 13:48:00,75.6,7.1,30.03,SSW,201,2.6,9.2,7,0.00,CLR,FEW,0.00,937.6,WeatherDisplay:10.37,2013-04-10 20:48:00,
2013-04-10 13:49:00,75.6,7.1,30.03,SSW,200,0.0,6.9,7,0.00,CLR,FEW,0.00,937.6,WeatherDisplay:10.37,2013-04-10 20:49:00,
2013-04-10 13:50:00,75.8,7.3,30.03,SSW,199,0.0,0.0,7,0.00,CLR,FEW,0.00,935.5,WeatherDisplay:10.37,2013-04-10 20:50:00,
2013-04-10 13:53:00,76.1,4.1,30.03,East,88,0.0,0.0,6,0.00,CLR,FEW,0.00,932.4,WeatherDisplay:10.37,2013-04-10 20:53:00,
2013-04-10 13:54:00,76.0,4.0,30.03,East,96,0.0,0.0,6,0.00,CLR,FEW,0.00,932.4,WeatherDisplay:10.37,2013-04-10 20:54:00,
2013-04-10 13:56:00,76.3,10.6,30.03,South,190,0.1,1.3,8,0.00,CLR,FEW,0.00,932.4,WeatherDisplay:10.37,2013-04-10 20:56:00,
2013-04-10 13:58:00,76.3,4.2,30.03,SE,134,8.1,19.6,6,0.00,CLR,FEW,0.00,930.3,WeatherDisplay:10.37,2013-04-10 20:58:00,
2013-04-10 13:59:00,76.0,4.0,30.03,South,187,3.4,9.2,6,0.00,CLR,FEW,0.00,930.3,WeatherDisplay:10.37,2013-04-10 20:59:00,
2013-04-10 14:00:00,75.8,3.9,30.03,SW,218,0.4,6.9,6,0.00,CLR,FEW,0.00,928.2,WeatherDisplay:10.37,2013-04-10 21:00:00,
2013-04-10 14:01:00,75.8,3.9,30.03,WSW,250,0.2,2.6,6,0.00,CLR,FEW,0.00,925.0,WeatherDisplay:10.37,2013-04-10 21:01:00,
2013-04-10 14:03:00,75.8,3.9,30.03,WSW,245,3.1,8.1,6,0.00,CLR,FEW,0.00,925.0,WeatherDisplay:10.37,2013-04-10 21:03:00,
2013-04-10 14:04:00,76.0,7.4,30.03,WSW,243,0.0,0.0,7,0.00,CLR,FEW,0.00,926.1,WeatherDisplay:10.37,2013-04-10 21:04:00,
2013-04-10 14:07:00,76.0,4.0,30.03,WSW,244,5.8,9.2,6,0.00,CLR,FEW,0.00,923.0,WeatherDisplay:10.37,2013-04-10 21:07:00,
2013-04-10 14:08:00,76.0,7.4,30.03,SSW,207,0.7,3.5,7,0.00,CLR,FEW,0.00,920.9,WeatherDisplay:10.37,2013-04-10 21:08:00,
2013-04-10 14:09:00,75.8,3.9,30.03,SSW,207,0.0,0.0,6,0.00,CLR,FEW,0.00,920.9,WeatherDisplay:10.37,2013-04-10 21:09:00,
2013-04-10 14:12:00,76.0,4.0,30.03,SSW,211,0.2,2.3,6,0.00,CLR,FEW,0.00,915.6,WeatherDisplay:10.37,2013-04-10 21:12:00,
2013-04-10 14:14:00,76.3,4.2,30.03,SSW,211,0.0,0.0,6,0.00,CLR,FEW,0.00,913.5,WeatherDisplay:10.37,2013-04-10 21:14:00,
2013-04-10 14:17:00,76.7,4.5,30.02,SSW,211,0.0,0.0,6,0.00,CLR,FEW,0.00,911.4,WeatherDisplay:10.37,2013-04-10 21:17:00,
2013-04-10 14:18:00,77.0,4.7,30.02,SSW,211,0.0,0.0,6,0.00,CLR,FEW,0.00,908.3,WeatherDisplay:10.37,2013-04-10 21:18:00,
2013-04-10 14:19:00,77.2,4.9,30.02,SSW,211,0.0,0.0,6,0.00,CLR,FEW,0.00,908.3,WeatherDisplay:10.37,2013-04-10 21:19:00,
2013-04-10 14:22:00,77.6,1.2,30.02,SSE,157,0.1,1.2,5,0.00,CLR,FEW,0.00,903.0,WeatherDisplay:10.37,2013-04-10 21:22:00,
2013-04-10 14:23:00,77.6,1.2,30.02,SSE,157,0.0,0.0,5,0.00,CLR,FEW,0.00,903.0,WeatherDisplay:10.37,2013-04-10 21:23:00,
2013-04-10 14:24:00,77.6,1.2,30.02,SSE,157,0.0,0.0,5,0.00,CLR,FEW,0.00,903.0,WeatherDisplay:10.37,2013-04-10 21:24:00,
2013-04-10 14:27:00,77.4,1.1,30.02,SW,218,1.5,3.9,5,0.00,CLR,FEW,0.00,893.5,WeatherDisplay:10.37,2013-04-10 21:27:00,
2013-04-10 14:28:00,77.4,5.0,30.02,SSW,213,1.7,5.8,6,0.00,CLR,FEW,0.00,893.5,WeatherDisplay:10.37,2013-04-10 21:28:00,
2013-04-10 14:29:00,77.4,1.1,30.02,SSW,198,0.4,2.3,5,0.00,CLR,FEW,0.00,891.5,WeatherDisplay:10.37,2013-04-10 21:29:00,
2013-04-10 14:32:00,77.4,5.0,30.01,SSW,213,1.1,5.8,6,0.00,CLR,FEW,0.00,886.2,WeatherDisplay:10.37,2013-04-10 21:32:00,
2013-04-10 14:34:00,77.2,0.9,30.01,SSW,202,0.0,0.0,5,0.00,CLR,FEW,0.00,884.1,WeatherDisplay:10.37,2013-04-10 21:34:00,
2013-04-10 14:35:00,77.2,0.9,30.01,SSW,203,0.0,0.0,5,0.00,CLR,FEW,0.00,879.9,WeatherDisplay:10.37,2013-04-10 21:35:00,
2013-04-10 14:36:00,77.2,4.9,30.01,SSW,192,0.1,1.2,6,0.00,CLR,FEW,0.00,879.9,WeatherDisplay:10.37,2013-04-10 21:36:00,
2013-04-10 14:37:00,77.2,4.9,30.01,WSW,238,0.0,3.5,6,0.00,CLR,FEW,0.00,878.9,WeatherDisplay:10.37,2013-04-10 21:37:00,
2013-04-10 14:39:00,77.4,1.1,30.01,SSW,196,4.7,8.1,5,0.00,CLR,FEW,0.00,878.9,WeatherDisplay:10.37,2013-04-10 21:39:00,
2013-04-10 14:40:00,77.4,1.1,30.01,SSW,198,0.6,9.2,5,0.00,CLR,FEW,0.00,872.5,WeatherDisplay:10.37,2013-04-10 21:40:00,
2013-04-10 14:42:00,77.4,1.1,30.01,SW,220,0.0,0.0,5,0.00,CLR,FEW,0.00,869.4,WeatherDisplay:10.37,2013-04-10 21:42:00,
2013-04-10 14:45:00,77.4,8.4,30.01,West,277,0.0,6.9,7,0.00,CLR,FEW,0.00,865.2,WeatherDisplay:10.37,2013-04-10 21:45:00,
2013-04-10 14:47:00,77.6,5.2,30.01,NW,314,0.0,0.0,6,0.00,CLR,FEW,0.00,862.0,WeatherDisplay:10.37,2013-04-10 21:47:00,
2013-04-10 14:48:00,77.7,5.2,30.01,WNW,290,1.2,2.3,6,0.00,CLR,FEW,0.00,862.0,WeatherDisplay:10.37,2013-04-10 21:48:00,
2013-04-10 14:49:00,77.7,5.2,30.01,WNW,290,0.0,5.8,6,0.00,CLR,FEW,0.00,857.9,WeatherDisplay:10.37,2013-04-10 21:49:00,
2013-04-10 14:50:00,77.9,8.8,30.01,North,360,0.0,0.0,7,0.00,CLR,FEW,0.00,806.4,WeatherDisplay:10.37,2013-04-10 21:50:00,
2013-04-10 14:52:00,78.1,1.6,30.01,NNW,329,1.2,5.2,5,0.00,CLR,FEW,0.00,781.2,WeatherDisplay:10.37,2013-04-10 21:52:00,
2013-04-10 14:54:00,78.6,1.9,30.01,NNE,13,0.0,0.0,5,0.00,CLR,FEW,0.00,847.4,WeatherDisplay:10.37,2013-04-10 21:54:00,
2013-04-10 14:55:00,78.7,2.0,30.01,NNW,334,0.0,0.0,5,0.00,CLR,FEW,0.00,849.5,WeatherDisplay:10.37,2013-04-10 21:55:00,
2013-04-10 14:56:00,79.0,2.2,30.01,SSW,205,0.2,1.2,5,0.00,CLR,FEW,0.00,847.4,WeatherDisplay:10.37,2013-04-10 21:56:00,
2013-04-10 14:57:00,79.0,2.2,30.01,SSW,205,0.0,1.2,5,0.00,CLR,FEW,0.00,843.1,WeatherDisplay:10.37,2013-04-10 21:57:00,
2013-04-10 14:59:00,78.8,2.1,30.01,SSW,205,0.0,0.0,5,0.00,CLR,FEW,0.00,837.9,WeatherDisplay:10.37,2013-04-10 21:59:00,
2013-04-10 15:01:00,79.0,2.2,30.00,SW,236,0.0,0.0,5,0.00,CLR,FEW,0.00,835.8,WeatherDisplay:10.37,2013-04-10 22:01:00,
2013-04-10 15:02:00,79.2,6.3,30.00,SW,236,0.0,0.0,6,0.00,CLR,FEW,0.00,834.8,WeatherDisplay:10.37,2013-04-10 22:02:00,
2013-04-10 15:03:00,79.4,6.5,30.00,SW,236,0.0,0.0,6,0.00,CLR,FEW,0.00,830.5,WeatherDisplay:10.37,2013-04-10 22:03:00,
2013-04-10 15:05:00,79.6,2.6,30.00,SW,236,0.0,0.0,5,0.00,CLR,FEW,0.00,828.5,WeatherDisplay:10.37,2013-04-10 22:05:00,
2013-04-10 15:07:00,79.8,6.8,30.00,SW,236,0.1,0.0,6,0.00,CLR,FEW,0.00,825.3,WeatherDisplay:10.37,2013-04-10 22:07:00,
2013-04-10 15:08:00,79.8,6.8,30.00,WSW,247,0.5,2.3,6,0.00,CLR,FEW,0.00,825.3,WeatherDisplay:10.37,2013-04-10 22:08:00,
2013-04-10 15:09:00,79.8,6.8,30.00,WSW,244,2.2,8.1,6,0.00,CLR,FEW,0.00,819.0,WeatherDisplay:10.37,2013-04-10 22:09:00,
2013-04-10 15:10:00,79.9,6.8,30.00,WSW,244,0.3,2.3,6,0.00,CLR,FEW,0.00,818.0,WeatherDisplay:10.37,2013-04-10 22:10:00,
2013-04-10 15:12:00,80.3,7.1,30.00,WSW,244,0.0,0.0,6,0.00,CLR,FEW,0.00,811.6,WeatherDisplay:10.37,2013-04-10 22:12:00,
2013-04-10 15:14:00,80.5,7.3,30.00,WSW,244,0.0,0.0,6,0.00,CLR,FEW,0.00,810.6,WeatherDisplay:10.37,2013-04-10 22:14:00,
2013-04-10 15:16:00,80.7,3.4,30.00,WSW,242,3.0,5.2,5,0.00,CLR,FEW,0.00,806.4,WeatherDisplay:10.37,2013-04-10 22:16:00,
2013-04-10 15:19:00,80.3,7.1,30.00,WSW,243,0.0,0.0,6,0.00,CLR,FEW,0.00,799.0,WeatherDisplay:10.37,2013-04-10 22:19:00,
2013-04-10 15:22:00,79.9,6.8,30.00,WNW,290,0.5,6.9,6,0.00,CLR,FEW,0.00,789.6,WeatherDisplay:10.37,2013-04-10 22:22:00,
2013-04-10 15:24:00,79.6,2.6,30.00,West,259,0.6,2.3,5,0.00,CLR,FEW,0.00,786.5,WeatherDisplay:10.37,2013-04-10 22:24:00,
2013-04-10 15:26:00,79.4,-2.3,30.00,SSE,157,0.1,1.3,4,0.00,CLR,FEW,0.00,781.2,WeatherDisplay:10.37,2013-04-10 22:26:00,
2013-04-10 15:27:00,79.2,-2.4,30.00,SSE,157,0.0,1.2,4,0.00,CLR,FEW,0.00,779.1,WeatherDisplay:10.37,2013-04-10 22:27:00,
2013-04-10 15:29:00,79.2,2.4,30.00,WSW,239,0.0,1.3,5,0.00,CLR,FEW,0.00,774.9,WeatherDisplay:10.37,2013-04-10 22:29:00,
2013-04-10 15:30:00,79.2,6.3,30.00,West,261,0.0,0.0,6,0.00,CLR,FEW,0.00,773.9,WeatherDisplay:10.37,2013-04-10 22:30:00,
2013-04-10 15:33:00,79.6,2.6,29.98,SSW,211,0.4,2.3,5,0.00,CLR,FEW,0.00,745.5,WeatherDisplay:10.37,2013-04-10 22:33:00,
2013-04-10 15:35:00,79.6,2.6,29.98,SW,216,0.0,0.0,5,0.00,CLR,FEW,0.00,758.1,WeatherDisplay:10.37,2013-04-10 22:35:00,
2013-04-10 15:38:00,79.6,2.6,29.98,SSW,193,7.4,9.2,5,0.00,CLR,FEW,0.00,750.8,WeatherDisplay:10.37,2013-04-10 22:38:00,
2013-04-10 15:40:00,78.8,2.1,29.98,SSW,192,0.1,5.8,5,0.00,CLR,FEW,0.00,745.5,WeatherDisplay:10.37,2013-04-10 22:40:00,
2013-04-10 15:43:00,78.8,-2.7,29.98,SSW,192,0.1,3.5,4,0.00,CLR,FEW,0.00,738.1,WeatherDisplay:10.37,2013-04-10 22:43:00,
2013-04-10 15:45:00,78.8,2.1,29.98,SW,221,2.3,8.1,5,0.00,CLR,FEW,0.00,730.8,WeatherDisplay:10.37,2013-04-10 22:45:00,
2013-04-10 15:46:00,79.0,-2.5,29.98,SW,217,0.0,3.5,4,0.00,CLR,FEW,0.00,727.6,WeatherDisplay:10.37,2013-04-10 22:46:00,
2013-04-10 15:48:00,78.8,-2.7,29.98,SW,217,0.0,0.0,4,0.00,CLR,FEW,0.00,677.3,WeatherDisplay:10.37,2013-04-10 22:48:00,
2013-04-10 15:49:00,79.2,2.4,29.98,SE,141,0.7,6.5,5,0.00,CLR,FEW,0.00,667.8,WeatherDisplay:10.37,2013-04-10 22:49:00,
2013-04-10 15:50:00,79.2,2.4,29.98,SE,132,3.9,10.4,5,0.00,CLR,FEW,0.00,716.1,WeatherDisplay:10.37,2013-04-10 22:50:00,
2013-04-10 15:52:00,79.2,-2.4,29.98,SW,230,0.0,0.0,4,0.00,CLR,FEW,0.00,713.0,WeatherDisplay:10.37,2013-04-10 22:52:00,
2013-04-10 15:53:00,79.2,-2.4,29.98,WSW,244,0.0,0.0,4,0.00,CLR,FEW,0.00,710.9,WeatherDisplay:10.37,2013-04-10 22:53:00,
2013-04-10 15:54:00,79.2,2.4,29.98,WSW,238,0.0,0.0,5,0.00,CLR,FEW,0.00,706.6,WeatherDisplay:10.37,2013-04-10 22:54:00,
2013-04-10 15:55:00,79.6,2.6,29.98,SSW,200,0.6,3.9,5,0.00,CLR,FEW,0.00,703.5,WeatherDisplay:10.37,2013-04-10 22:55:00,
2013-04-10 15:58:00,79.9,2.9,29.98,SSW,210,5.5,10.4,5,0.00,CLR,FEW,0.00,696.1,WeatherDisplay:10.37,2013-04-10 22:58:00,
2013-04-10 15:59:00,79.9,2.9,29.98,WSW,242,4.8,8.1,5,0.00,CLR,FEW,0.00,692.0,WeatherDisplay:10.37,2013-04-10 22:59:00,
2013-04-10 16:00:00,80.1,3.0,29.98,West,265,4.6,6.9,5,0.00,CLR,FEW,0.00,688.8,WeatherDisplay:10.37,2013-04-10 23:00:00,
2013-04-10 16:01:00,80.1,3.0,29.98,WSW,248,4.1,8.1,5,0.00,CLR,FEW,0.00,688.8,WeatherDisplay:10.37,2013-04-10 23:01:00,
2013-04-10 16:04:00,80.1,3.0,29.98,WSW,250,3.4,6.9,5,0.00,CLR,FEW,0.00,677.3,WeatherDisplay:10.37,2013-04-10 23:04:00,
2013-04-10 16:05:00,80.1,7.0,29.98,WSW,250,1.5,3.5,6,0.00,CLR,FEW,0.00,674.1,WeatherDisplay:10.37,2013-04-10 23:05:00,
2013-04-10 16:07:00,79.9,2.9,29.98,WSW,254,4.6,12.7,5,0.00,CLR,FEW,0.00,667.8,WeatherDisplay:10.37,2013-04-10 23:07:00,
2013-04-10 16:10:00,79.8,2.8,29.98,WSW,252,3.6,8.1,5,0.00,CLR,FEW,0.00,659.4,WeatherDisplay:10.37,2013-04-10 23:10:00,
2013-04-10 16:11:00,79.6,2.6,29.98,WSW,239,3.8,10.4,5,0.00,CLR,FEW,0.00,653.1,WeatherDisplay:10.37,2013-04-10 23:11:00,
2013-04-10 16:12:00,79.4,2.5,29.98,WSW,239,6.1,10.4,5,0.00,CLR,FEW,0.00,653.1,WeatherDisplay:10.37,2013-04-10 23:12:00,
2013-04-10 16:15:00,79.4,2.5,29.98,WSW,240,0.0,0.0,5,0.00,CLR,FEW,0.00,575.4,WeatherDisplay:10.37,2013-04-10 23:15:00,
2013-04-10 16:17:00,79.6,-2.1,29.97,WSW,240,0.0,0.0,4,0.00,CLR,FEW,0.00,370.6,WeatherDisplay:10.37,2013-04-10 23:17:00,
2013-04-10 16:19:00,79.8,6.8,29.97,WNW,282,0.8,2.6,6,0.00,CLR,FEW,0.00,631.0,WeatherDisplay:10.37,2013-04-10 23:19:00,
2013-04-10 16:20:00,79.8,6.8,29.97,WSW,244,1.0,0.0,6,0.00,CLR,FEW,0.00,631.0,WeatherDisplay:10.37,2013-04-10 23:20:00,
2013-04-10 16:23:00,79.9,6.8,29.97,WSW,244,1.9,6.9,6,0.00,CLR,FEW,0.00,618.5,WeatherDisplay:10.37,2013-04-10 23:23:00,
2013-04-10 16:24:00,79.8,-2.0,29.97,SW,221,4.2,10.4,4,0.00,CLR,FEW,0.00,577.5,WeatherDisplay:10.37,2013-04-10 23:24:00,
2013-04-10 16:27:00,79.9,6.8,29.97,West,272,1.4,3.5,6,0.00,CLR,FEW,0.00,605.9,WeatherDisplay:10.37,2013-04-10 23:27:00,
2013-04-10 16:29:00,80.1,3.0,29.97,WSW,240,5.2,6.9,5,0.00,CLR,FEW,0.00,601.6,WeatherDisplay:10.37,2013-04-10 23:29:00,
2013-04-10 16:32:00,79.9,-1.9,29.97,West,269,0.5,5.8,4,0.00,CLR,FEW,0.00,591.1,WeatherDisplay:10.37,2013-04-10 23:32:00,
2013-04-10 16:33:00,79.8,2.8,29.97,West,264,0.9,2.3,5,0.00,CLR,FEW,0.00,582.8,WeatherDisplay:10.37,2013-04-10 23:33:00,
2013-04-10 16:35:00,79.8,2.8,29.97,West,259,0.0,0.0,5,0.00,CLR,FEW,0.00,581.7,WeatherDisplay:10.37,2013-04-10 23:35:00,
2013-04-10 16:38:00,79.8,6.8,29.97,West,267,0.5,5.2,6,0.00,CLR,FEW,0.00,406.4,WeatherDisplay:10.37,2013-04-10 23:38:00,
2013-04-10 16:40:00,79.9,6.8,29.97,WSW,256,6.0,0.0,6,0.00,CLR,FEW,0.00,553.4,WeatherDisplay:10.37,2013-04-10 23:40:00,
2013-04-10 16:41:00,79.8,22.6,29.97,South,187,16.2,19.5,12,0.00,CLR,FEW,0.00,546.0,WeatherDisplay:10.37,2013-04-10 23:41:00,
2013-04-10 16:43:00,78.3,23.4,29.97,South,173,18.5,19.5,13,0.00,CLR,FEW,0.00,540.8,WeatherDisplay:10.37,2013-04-10 23:43:00,
2013-04-10 16:44:00,77.0,24.1,29.97,South,190,16.0,20.7,14,0.00,CLR,FEW,0.00,537.6,WeatherDisplay:10.37,2013-04-10 23:44:00,
2013-04-10 16:45:00,76.5,23.7,29.97,SSW,200,14.9,19.6,14,0.00,CLR,FEW,0.00,537.6,WeatherDisplay:10.37,2013-04-10 23:45:00,
2013-04-10 16:47:00,75.8,23.2,29.97,SSW,200,15.1,19.6,14,0.00,CLR,FEW,0.00,524.0,WeatherDisplay:10.37,2013-04-10 23:47:00,
2013-04-10 16:48:00,75.6,23.0,29.97,SW,223,15.5,17.3,14,0.00,CLR,FEW,0.00,521.9,WeatherDisplay:10.37,2013-04-10 23:48:00,
2013-04-10 16:50:00,75.3,22.8,29.97,South,180,15.4,21.9,14,0.00,CLR,FEW,0.00,518.7,WeatherDisplay:10.37,2013-04-10 23:50:00,
2013-04-10 16:51:00,75.3,22.8,29.97,SSW,211,15.5,21.9,14,0.00,CLR,FEW,0.00,518.7,WeatherDisplay:10.37,2013-04-10 23:51:00,
2013-04-10 16:54:00,74.9,20.7,29.97,SW,217,14.8,19.6,13,0.00,CLR,FEW,0.00,501.9,WeatherDisplay:10.37,2013-04-10 23:54:00,
2013-04-10 16:55:00,74.9,18.8,29.97,South,191,15.5,16.1,12,0.00,CLR,FEW,0.00,496.6,WeatherDisplay:10.37,2013-04-10 23:55:00,
2013-04-10 16:57:00,74.9,22.5,29.97,South,171,15.0,21.9,14,0.00,CLR,FEW,0.00,492.4,WeatherDisplay:10.37,2013-04-10 23:57:00,
2013-04-10 16:59:00,74.4,23.7,29.97,SSW,209,17.3,20.7,15,0.00,CLR,FEW,0.00,487.2,WeatherDisplay:10.37,2013-04-10 23:59:00,
2013-04-10 17:00:00,74.2,23.5,29.97,SW,234,16.7,24.2,15,0.00,CLR,FEW,0.00,476.7,WeatherDisplay:10.37,2013-04-11 00:00:00,
2013-04-10 17:02:00,73.9,23.3,29.97,SSW,194,10.1,17.3,15,0.00,CLR,FEW,0.00,472.5,WeatherDisplay:10.37,2013-04-11 00:02:00,
2013-04-10 17:06:00,74.0,24.9,29.97,SSW,211,11.2,14.3,16,0.00,CLR,FEW,0.00,459.9,WeatherDisplay:10.37,2013-04-11 00:06:00,
2013-04-10 17:07:00,74.0,23.4,29.97,South,186,11.1,15.6,15,0.00,CLR,FEW,0.00,459.9,WeatherDisplay:10.37,2013-04-11 00:07:00,
2013-04-10 17:08:00,74.0,23.4,29.97,South,184,12.7,16.1,15,0.00,CLR,FEW,0.00,459.9,WeatherDisplay:10.37,2013-04-11 00:08:00,
2013-04-10 17:11:00,73.5,21.3,29.97,South,190,9.0,11.5,14,0.00,CLR,FEW,0.00,77.7,WeatherDisplay:10.37,2013-04-11 00:11:00,
2013-04-10 17:12:00,73.7,21.5,29.97,SW,217,7.7,11.5,14,0.00,SCT,FEW,0.00,99.8,WeatherDisplay:10.37,2013-04-11 00:12:00,
2013-04-10 17:13:00,73.7,21.5,29.97,SSE,163,8.6,11.5,14,0.00,BKN,FEW,0.00,85.0,WeatherDisplay:10.37,2013-04-11 00:13:00,
2013-04-10 17:14:00,73.7,21.5,29.97,South,190,14.1,15.6,14,0.00,BKN,FEW,0.00,90.3,WeatherDisplay:10.37,2013-04-11 00:14:00,
2013-04-10 17:16:00,73.5,19.6,29.97,SSW,211,13.3,20.7,13,0.00,BKN,FEW,0.00,102.9,WeatherDisplay:10.37,2013-04-11 00:16:00,
2013-04-10 17:18:00,73.5,19.6,29.97,South,190,11.0,17.3,13,0.00,BKN,FEW,0.00,175.3,WeatherDisplay:10.37,2013-04-11 00:18:00,
2013-04-10 17:20:00,73.5,21.3,29.97,SSW,199,12.0,0.0,14,0.00,BKN,FEW,0.00,151.2,WeatherDisplay:10.37,2013-04-11 00:20:00,
2013-04-10 17:22:00,73.5,21.3,29.97,South,188,13.9,21.9,14,0.00,BKN,FEW,0.00,149.1,WeatherDisplay:10.37,2013-04-11 00:22:00,
2013-04-10 17:23:00,73.5,21.3,29.97,SW,226,12.5,12.7,14,0.00,BKN,FEW,0.00,184.8,WeatherDisplay:10.37,2013-04-11 00:23:00,
2013-04-10 17:25:00,73.5,21.3,29.97,SSW,193,13.0,0.0,14,0.00,SCT,FEW,0.00,295.1,WeatherDisplay:10.37,2013-04-11 00:25:00,
2013-04-10 17:27:00,73.3,22.8,29.97,SSW,200,10.3,17.3,15,0.00,FEW,,0.00,343.4,WeatherDisplay:10.37,2013-04-11 00:27:00,
2013-04-10 17:28:00,73.2,22.7,29.97,SSW,198,10.8,12.7,15,0.00,CLR,FEW,0.00,343.4,WeatherDisplay:10.37,2013-04-11 00:28:00,
2013-04-10 17:29:00,73.2,21.1,29.97,South,188,13.5,17.3,14,0.00,CLR,FEW,0.00,232.1,WeatherDisplay:10.37,2013-04-11 00:29:00,
2013-04-10 17:30:00,72.8,20.8,29.97,SSW,196,14.2,16.1,14,0.00,CLR,FEW,0.00,156.4,WeatherDisplay:10.37,2013-04-11 00:30:00,
2013-04-10 17:33:00,72.7,20.7,29.98,South,190,12.1,13.8,14,0.00,FEW,,0.00,118.7,WeatherDisplay:10.37,2013-04-11 00:33:00,
2013-04-10 17:34:00,72.5,22.2,29.98,SSW,195,9.4,9.4,15,0.00,SCT,FEW,0.00,79.8,WeatherDisplay:10.37,2013-04-11 00:34:00,
2013-04-10 17:35:00,72.5,22.2,29.98,SW,215,10.7,13.0,15,0.00,BKN,FEW,0.00,53.5,WeatherDisplay:10.37,2013-04-11 00:35:00,
2013-04-10 17:38:00,72.3,22.0,29.98,South,184,12.2,12.7,15,0.00,BKN,FEW,0.00,51.5,WeatherDisplay:10.37,2013-04-11 00:38:00,
2013-04-10 17:40:00,72.3,22.0,29.98,SSW,201,0.5,9.2,15,0.00,BKN,FEW,0.00,49.4,WeatherDisplay:10.37,2013-04-11 00:40:00,
2013-04-10 17:41:00,72.1,21.9,29.98,South,190,2.5,17.3,15,0.00,BKN,FEW,0.00,49.4,WeatherDisplay:10.37,2013-04-11 00:41:00,
2013-04-10 17:43:00,72.1,23.4,29.98,South,175,2.2,7.8,16,0.00,BKN,FEW,0.00,49.4,WeatherDisplay:10.37,2013-04-11 00:43:00,
2013-04-10 17:47:00,72.0,21.8,29.99,SW,224,3.5,6.5,15,0.00,BKN,FEW,0.00,49.4,WeatherDisplay:10.37,2013-04-11 00:47:00,
2013-04-10 17:48:00,71.8,20.0,29.99,South,184,4.3,9.2,14,0.00,BKN,FEW,0.00,49.4,WeatherDisplay:10.37,2013-04-11 00:48:00,
2013-04-10 17:49:00,71.6,21.5,29.99,South,180,4.9,10.4,15,0.00,BKN,FEW,0.00,51.5,WeatherDisplay:10.37,2013-04-11 00:49:00,
2013-04-10 17:52:00,71.6,21.5,29.99,South,190,3.4,11.5,15,0.00,BKN,FEW,0.00,109.2,WeatherDisplay:10.37,2013-04-11 00:52:00,
2013-04-10 17:54:00,71.6,21.5,29.99,South,182,0.8,9.2,15,0.00,BKN,FEW,0.00,68.3,WeatherDisplay:10.37,2013-04-11 00:54:00,
2013-04-10 17:57:00,71.1,21.1,29.99,SSE,167,3.3,10.4,15,0.00,BKN,FEW,0.00,49.4,WeatherDisplay:10.37,2013-04-11 00:57:00,
2013-04-10 17:59:00,70.9,22.4,29.99,SSW,201,2.6,10.4,16,0.00,BKN,FEW,0.00,55.6,WeatherDisplay:10.37,2013-04-11 00:59:00,
2013-04-10 18:02:00,70.6,22.2,30.00,SW,226,4.0,9.2,16,0.00,BKN,FEW,0.00,72.5,WeatherDisplay:10.37,2013-04-11 01:02:00,
2013-04-10 18:04:00,70.4,22.0,30.00,SSE,153,0.8,2.6,16,0.00,BKN,FEW,0.00,119.7,WeatherDisplay:10.37,2013-04-11 01:04:00,
2013-04-10 18:07:00,70.6,22.2,30.00,SSW,197,0.5,9.2,16,0.00,BKN,FEW,0.00,101.8,WeatherDisplay:10.37,2013-04-11 01:07:00,
2013-04-10 18:08:00,70.6,22.2,30.00,SSW,196,0.0,9.2,16,0.00,BKN,FEW,0.00,175.3,WeatherDisplay:10.37,2013-04-11 01:08:00,
2013-04-10 18:11:00,70.6,22.2,30.00,SSW,196,3.4,6.9,16,0.00,FEW,,0.00,175.3,WeatherDisplay:10.37,2013-04-11 01:11:00,
2013-04-10 18:12:00,70.4,22.0,30.00,SE,142,7.5,13.8,16,0.00,CLR,FEW,0.00,202.7,WeatherDisplay:10.37,2013-04-11 01:12:00,
2013-04-10 18:13:00,70.4,22.0,30.00,SW,232,4.4,13.8,16,0.00,CLR,FEW,0.00,199.5,WeatherDisplay:10.37,2013-04-11 01:13:00,
2013-04-10 18:17:00,70.1,23.2,30.00,South,185,2.0,11.7,17,0.00,CLR,FEW,0.00,184.8,WeatherDisplay:10.37,2013-04-11 01:17:00,
2013-04-10 18:18:00,70.1,21.8,30.00,SE,141,3.6,7.8,16,0.00,CLR,FEW,0.00,184.8,WeatherDisplay:10.37,2013-04-11 01:18:00,
2013-04-10 18:19:00,70.1,21.8,30.00,South,188,1.1,9.1,16,0.00,CLR,FEW,0.00,177.4,WeatherDisplay:10.37,2013-04-11 01:19:00,
2013-04-10 18:23:00,69.6,21.4,30.00,South,179,3.0,8.1,16,0.00,CLR,FEW,0.00,162.8,WeatherDisplay:10.37,2013-04-11 01:23:00,
2013-04-10 18:24:00,69.6,21.4,30.00,SSW,192,2.7,9.2,16,0.00,CLR,FEW,0.00,162.8,WeatherDisplay:10.37,2013-04-11 01:24:00,
2013-04-10 18:28:00,69.4,22.7,30.00,SSE,147,0.0,0.0,17,0.00,CLR,FEW,0.00,143.8,WeatherDisplay:10.37,2013-04-11 01:28:00,
2013-04-10 18:29:00,69.4,24.0,30.00,SSE,162,9.2,11.5,18,0.00,CLR,FEW,0.00,141.8,WeatherDisplay:10.37,2013-04-11 01:29:00,
2013-04-10 18:30:00,69.3,23.9,30.00,South,181,8.8,13.8,18,0.00,CLR,FEW,0.00,138.6,WeatherDisplay:10.37,2013-04-11 01:30:00,
2013-04-10 18:31:00,69.1,23.8,30.01,SSE,153,3.4,13.8,18,0.00,CLR,FEW,0.00,136.5,WeatherDisplay:10.37,2013-04-11 01:31:00,
2013-04-10 18:34:00,68.6,24.7,30.01,SE,140,1.6,6.9,19,0.00,CLR,FEW,0.00,123.9,WeatherDisplay:10.37,2013-04-11 01:34:00,
2013-04-10 18:35:00,68.6,24.7,30.01,SSW,199,2.1,6.9,19,0.00,CLR,FEW,0.00,123.9,WeatherDisplay:10.37,2013-04-11 01:35:00,
2013-04-10 18:39:00,68.1,24.2,30.01,SSW,209,0.5,8.1,19,0.00,CLR,FEW,0.00,109.2,WeatherDisplay:10.37,2013-04-11 01:39:00,
2013-04-10 18:40:00,68.1,24.2,30.01,SSW,192,0.0,8.1,19,0.00,CLR,FEW,0.00,105.0,WeatherDisplay:10.37,2013-04-11 01:40:00,
2013-04-10 18:41:00,67.9,24.1,30.01,South,177,0.0,0.0,19,0.00,CLR,FEW,0.00,99.8,WeatherDisplay:10.37,2013-04-11 01:41:00,
2013-04-10 18:42:00,67.9,24.1,30.01,SSE,150,0.5,5.2,19,0.00,CLR,FEW,0.00,97.7,WeatherDisplay:10.37,2013-04-11 01:42:00,
2013-04-10 18:44:00,67.8,24.0,30.01,SSW,197,0.0,0.0,19,0.00,CLR,FEW,0.00,90.3,WeatherDisplay:10.37,2013-04-11 01:44:00,
2013-04-10 18:47:00,67.6,23.8,30.01,SSE,163,0.5,5.8,19,0.00,CLR,FEW,0.00,79.8,WeatherDisplay:10.37,2013-04-11 01:47:00,
2013-04-10 18:48:00,67.6,23.8,30.01,SSE,148,0.0,1.2,19,0.00,CLR,FEW,0.00,77.7,WeatherDisplay:10.37,2013-04-11 01:48:00,
2013-04-10 18:49:00,67.4,23.7,30.01,SSE,148,0.0,0.0,19,0.00,CLR,FEW,0.00,73.5,WeatherDisplay:10.37,2013-04-11 01:49:00,
2013-04-10 18:52:00,67.4,23.7,30.01,SSW,200,0.0,0.0,19,0.00,CLR,FEW,0.00,63.0,WeatherDisplay:10.37,2013-04-11 01:52:00,
2013-04-10 18:53:00,67.4,23.7,30.01,SW,229,0.0,0.0,19,0.00,CLR,FEW,0.00,58.8,WeatherDisplay:10.37,2013-04-11 01:53:00,
2013-04-10 18:54:00,67.4,24.9,30.01,SW,229,0.0,0.0,20,0.00,CLR,FEW,0.00,56.7,WeatherDisplay:10.37,2013-04-11 01:54:00,
2013-04-10 18:57:00,67.4,23.7,30.01,SW,227,0.0,0.0,19,0.00,CLR,FEW,0.00,46.2,WeatherDisplay:10.37,2013-04-11 01:57:00,
2013-04-10 18:58:00,67.3,23.6,30.01,SW,227,0.0,0.0,19,0.00,CLR,FEW,0.00,42.0,WeatherDisplay:10.37,2013-04-11 01:58:00,
2013-04-10 19:00:00,67.3,23.6,30.01,SW,227,0.0,0.0,19,0.00,CLR,FEW,0.00,38.9,WeatherDisplay:10.37,2013-04-11 02:00:00,
2013-04-10 19:03:00,67.1,23.4,30.01,East,97,0.0,0.0,19,0.00,FEW,,0.00,29.4,WeatherDisplay:10.37,2013-04-11 02:03:00,
2013-04-10 19:05:00,66.9,23.3,30.01,ESE,120,2.0,0.0,19,0.00,FEW,,0.00,24.1,WeatherDisplay:10.37,2013-04-11 02:05:00,
2013-04-10 19:09:00,66.6,24.2,30.01,East,86,0.0,0.0,20,0.00,SCT,FEW,0.00,12.6,WeatherDisplay:10.37,2013-04-11 02:09:00,
2013-04-10 19:10:00,66.4,24.1,30.01,SE,128,0.0,0.0,20,0.00,SCT,FEW,0.00,11.6,WeatherDisplay:10.37,2013-04-11 02:10:00,
2013-04-10 19:11:00,66.4,22.8,30.01,SE,128,0.0,0.0,19,0.00,SCT,FEW,0.00,11.6,WeatherDisplay:10.37,2013-04-11 02:11:00,
2013-04-10 19:14:00,66.0,23.7,30.01,SSE,151,0.0,0.0,20,0.00,BKN,FEW,0.00,5.3,WeatherDisplay:10.37,2013-04-11 02:14:00,
2013-04-10 19:15:00,65.6,23.4,30.01,SE,146,0.0,0.0,20,0.00,SCT,FEW,0.00,5.3,WeatherDisplay:10.37,2013-04-11 02:15:00,
2013-04-10 19:16:00,65.6,23.4,30.02,SE,146,0.0,0.0,20,0.00,FEW,,0.00,5.3,WeatherDisplay:10.37,2013-04-11 02:16:00,
2013-04-10 19:20:00,65.3,24.3,30.02,SE,136,1.0,0.0,21,0.00,OVC,FEW,0.00,0.0,WeatherDisplay:10.37,2013-04-11 02:20:00,
2013-04-10 19:21:00,65.2,24.2,30.02,SE,130,0.0,0.0,21,0.00,OVC,FEW,0.00,0.0,WeatherDisplay:10.37,2013-04-11 02:21:00,
2013-04-10 19:22:00,65.0,25.2,30.02,SE,130,0.0,0.0,22,0.00,OVC,FEW,0.00,0.0,WeatherDisplay:10.37,2013-04-11 02:22:00,
2013-04-10 19:25:00,64.8,23.9,30.02,SE,131,0.0,0.0,21,0.00,OVC,FEW,0.00,0.0,WeatherDisplay:10.37,2013-04-11 02:25:00,
2013-04-10 19:27:00,64.3,25.7,30.02,SE,130,0.0,0.0,23,0.00,OVC,FEW,0.00,0.0,WeatherDisplay:10.37,2013-04-11 02:27:00,
2013-04-10 19:28:00,64.2,25.6,30.02,SE,130,0.0,0.0,23,0.00,OVC,FEW,0.00,0.0,WeatherDisplay:10.37,2013-04-11 02:28:00,
2013-04-10 19:30:00,64.2,24.5,30.02,SE,129,0.0,0.0,22,0.00,OVC,FEW,0.00,0.0,WeatherDisplay:10.37,2013-04-11 02:30:00,
2013-04-10 19:32:00,63.7,27.2,30.03,SE,128,0.0,0.0,25,0.00,OVC,FEW,0.00,0.0,WeatherDisplay:10.37,2013-04-11 02:32:00,
2013-04-10 19:33:00,63.5,25.0,30.03,SE,138,0.0,0.0,23,0.00,OVC,FEW,0.00,0.0,WeatherDisplay:10.37,2013-04-11 02:33:00,
2013-04-10 19:35:00,63.7,23.0,30.03,SE,144,0.0,0.0,21,0.00,OVC,FEW,0.00,0.0,WeatherDisplay:10.37,2013-04-11 02:35:00,
2013-04-10 19:38:00,63.5,25.0,30.03,SE,146,0.0,0.0,23,0.00,OVC,FEW,0.00,0.0,WeatherDisplay:10.37,2013-04-11 02:38:00,
2013-04-10 19:40:00,63.4,24.9,30.03,SE,143,0.6,8.1,23,0.00,OVC,FEW,0.00,0.0,WeatherDisplay:10.37,2013-04-11 02:40:00,
2013-04-10 19:41:00,63.4,24.9,30.03,South,173,0.3,8.1,23,0.00,OVC,FEW,0.00,0.0,WeatherDisplay:10.37,2013-04-11 02:41:00,
2013-04-10 19:44:00,64.0,22.1,30.03,SSE,147,1.0,6.9,20,0.00,OVC,FEW,0.00,0.0,WeatherDisplay:10.37,2013-04-11 02:44:00,
2013-04-10 19:45:00,64.2,23.4,30.03,SSE,148,0.0,0.0,21,0.00,OVC,FEW,0.00,0.0,WeatherDisplay:10.37,2013-04-11 02:45:00,
2013-04-10 19:46:00,64.0,23.2,30.03,SSE,153,0.0,0.0,21,0.00,CLR,FEW,0.00,0.0,WeatherDisplay:10.37,2013-04-11 02:46:00,
2013-04-10 19:47:00,64.0,24.4,30.03,SE,138,2.0,5.2,22,0.00,CLR,FEW,0.00,0.0,WeatherDisplay:10.37,2013-04-11 02:47:00,
2013-04-10 19:49:00,64.0,23.2,30.03,SE,138,0.5,11.5,21,0.00,CLR,FEW,0.00,0.0,WeatherDisplay:10.37,2013-04-11 02:49:00,
2013-04-10 19:50:00,63.9,23.2,30.03,SSE,148,0.0,0.0,21,0.00,CLR,FEW,0.00,0.0,WeatherDisplay:10.37,2013-04-11 02:50:00,
2013-04-10 19:53:00,63.7,24.1,30.03,SE,143,0.0,0.0,22,0.00,CLR,FEW,0.00,0.0,WeatherDisplay:10.37,2013-04-11 02:53:00,
2013-04-10 19:55:00,63.4,23.8,30.03,SSE,147,0.0,1.2,22,0.00,CLR,FEW,0.00,0.0,WeatherDisplay:10.37,2013-04-11 02:55:00,
2013-04-10 19:58:00,62.9,23.4,30.03,SSE,152,0.0,0.0,22,0.00,CLR,FEW,0.00,0.0,WeatherDisplay:10.37,2013-04-11 02:58:00,
2013-04-10 20:00:00,62.7,23.3,30.03,SSE,147,0.0,0.0,22,0.00,CLR,FEW,0.00,0.0,WeatherDisplay:10.37,2013-04-11 03:00:00,
2013-04-10 20:01:00,62.6,24.2,30.03,SSE,148,0.0,0.0,23,0.00,CLR,FEW,0.00,0.0,WeatherDisplay:10.37,2013-04-11 03:01:00,
2013-04-10 20:04:00,62.4,23.0,30.03,SE,139,0.0,0.0,22,0.00,CLR,FEW,0.00,0.0,WeatherDisplay:10.37,2013-04-11 03:04:00,
2013-04-10 20:05:00,62.4,23.0,30.03,SE,140,0.0,0.0,22,0.00,CLR,FEW,0.00,0.0,WeatherDisplay:10.37,2013-04-11 03:05:00,
2013-04-10 20:06:00,62.4,23.0,30.03,SE,139,0.0,0.0,22,0.00,CLR,FEW,0.00,0.0,WeatherDisplay:10.37,2013-04-11 03:06:00,
2013-04-10 20:07:00,62.4,24.1,30.03,South,178,0.0,0.0,23,0.00,CLR,FEW,0.00,0.0,WeatherDisplay:10.37,2013-04-11 03:07:00,
2013-04-10 20:09:00,62.1,23.8,30.03,South,179,0.0,0.0,23,0.00,CLR,FEW,0.00,0.0,WeatherDisplay:10.37,2013-04-11 03:09:00,
2013-04-10 20:10:00,62.1,22.8,30.03,SSE,155,0.0,0.0,22,0.00,CLR,FEW,0.00,0.0,WeatherDisplay:10.37,2013-04-11 03:10:00,
2013-04-10 20:12:00,62.3,24.0,30.03,SSE,150,0.0,0.0,23,0.00,CLR,FEW,0.00,0.0,WeatherDisplay:10.37,2013-04-11 03:12:00,
2013-04-10 20:14:00,62.1,22.8,30.03,SSE,150,0.0,0.0,22,0.00,CLR,FEW,0.00,0.0,WeatherDisplay:10.37,2013-04-11 03:14:00,
2013-04-10 20:16:00,62.3,22.9,30.04,SE,144,0.3,1.2,22,0.00,CLR,FEW,0.00,0.0,WeatherDisplay:10.37,2013-04-11 03:16:00,
2013-04-10 20:17:00,62.3,24.0,30.04,SE,144,0.0,2.3,23,0.00,CLR,FEW,0.00,0.0,WeatherDisplay:10.37,2013-04-11 03:17:00,
2013-04-10 20:18:00,62.1,23.8,30.04,SE,144,0.0,2.3,23,0.00,CLR,FEW,0.00,0.0,WeatherDisplay:10.37,2013-04-11 03:18:00,
2013-04-10 20:22:00,62.0,23.7,30.04,SE,144,0.0,0.0,23,0.00,CLR,FEW,0.00,0.0,WeatherDisplay:10.37,2013-04-11 03:22:00,
2013-04-10 20:23:00,62.0,23.7,30.04,SE,144,0.0,0.0,23,0.00,CLR,FEW,0.00,0.0,WeatherDisplay:10.37,2013-04-11 03:23:00,
2013-04-10 20:27:00,62.3,21.8,30.04,SSE,151,0.6,8.1,21,0.00,CLR,FEW,0.00,0.0,WeatherDisplay:10.37,2013-04-11 03:27:00,
2013-04-10 20:28:00,62.3,22.9,30.04,South,187,0.6,2.3,22,0.00,CLR,FEW,0.00,0.0,WeatherDisplay:10.37,2013-04-11 03:28:00,
2013-04-10 20:29:00,62.4,21.9,30.04,SSE,164,0.3,1.3,21,0.00,CLR,FEW,0.00,0.0,WeatherDisplay:10.37,2013-04-11 03:29:00,
2013-04-10 20:33:00,62.1,23.8,30.04,SE,146,0.0,0.0,23,0.00,CLR,FEW,0.00,0.0,WeatherDisplay:10.37,2013-04-11 03:33:00,
2013-04-10 20:34:00,62.0,22.7,30.04,SE,144,0.0,0.0,22,0.00,CLR,FEW,0.00,0.0,WeatherDisplay:10.37,2013-04-11 03:34:00,
2013-04-10 20:35:00,62.0,23.7,30.04,SSE,151,0.0,0.0,23,0.00,CLR,FEW,0.00,0.0,WeatherDisplay:10.37,2013-04-11 03:35:00,
2013-04-10 20:38:00,62.0,23.7,30.04,ENE,60,0.0,0.0,23,0.00,CLR,FEW,0.00,0.0,WeatherDisplay:10.37,2013-04-11 03:38:00,
2013-04-10 20:39:00,61.6,24.4,30.04,ENE,62,0.0,0.0,24,0.00,CLR,FEW,0.00,0.0,WeatherDisplay:10.37,2013-04-11 03:39:00,
2013-04-10 20:41:00,61.3,23.1,30.04,ENE,62,0.0,0.0,23,0.00,CLR,FEW,0.00,0.0,WeatherDisplay:10.37,2013-04-11 03:41:00,
2013-04-10 20:42:00,61.2,24.1,30.04,ENE,62,0.0,0.0,24,0.00,CLR,FEW,0.00,0.0,WeatherDisplay:10.37,2013-04-11 03:42:00,
2013-04-10 20:44:00,60.9,22.8,30.04,ENE,62,0.0,0.0,23,0.00,CLR,FEW,0.00,0.0,WeatherDisplay:10.37,2013-04-11 03:44:00,
2013-04-10 20:45:00,60.9,22.8,30.04,ENE,62,0.0,0.0,23,0.00,CLR,FEW,0.00,0.0,WeatherDisplay:10.37,2013-04-11 03:45:00,
2013-04-10 20:46:00,60.9,22.8,30.05,ENE,62,0.0,0.0,23,0.00,CLR,FEW,0.00,0.0,WeatherDisplay:10.37,2013-04-11 03:46:00,
2013-04-10 20:47:00,60.9,22.8,30.05,ENE,65,0.0,0.0,23,0.00,CLR,FEW,0.00,0.0,WeatherDisplay:10.37,2013-04-11 03:47:00,
2013-04-10 20:50:00,60.8,22.7,30.05,East,81,0.0,0.0,23,0.00,CLR,FEW,0.00,0.0,WeatherDisplay:10.37,2013-04-11 03:50:00,
2013-04-10 20:52:00,60.5,22.5,30.05,ESE,119,0.0,0.0,23,0.00,CLR,FEW,0.00,0.0,WeatherDisplay:10.37,2013-04-11 03:52:00,
2013-04-10 20:57:00,60.4,22.4,30.05,ESE,123,1.7,5.2,23,0.00,CLR,FEW,0.00,0.0,WeatherDisplay:10.37,2013-04-11 03:57:00,
2013-04-10 21:00:00,60.5,22.5,30.05,SE,126,0.0,0.0,23,0.00,CLR,FEW,0.00,0.0,WeatherDisplay:10.37,2013-04-11 04:00:00,
2013-04-10 21:03:00,59.9,23.9,30.05,East,98,0.0,0.0,25,0.00,CLR,FEW,0.00,0.0,WeatherDisplay:10.37,2013-04-11 04:03:00,
2013-04-10 21:05:00,59.3,23.4,30.05,East,100,0.0,0.0,25,0.00,CLR,FEW,0.00,0.0,WeatherDisplay:10.37,2013-04-11 04:05:00,
2013-04-10 21:06:00,59.2,23.4,30.05,East,100,0.0,0.0,25,0.00,CLR,FEW,0.00,0.0,WeatherDisplay:10.37,2013-04-11 04:06:00,
2013-04-10 21:08:00,58.7,22.0,30.05,East,96,0.0,0.0,24,0.00,CLR,FEW,0.00,0.0,WeatherDisplay:10.37,2013-04-11 04:08:00,
2013-04-10 21:11:00,58.3,22.6,30.05,East,100,0.0,0.0,25,0.00,CLR,FEW,0.00,0.0,WeatherDisplay:10.37,2013-04-11 04:11:00,
2013-04-10 21:12:00,58.1,23.3,30.05,ESE,104,0.0,0.0,26,0.00,CLR,FEW,0.00,0.0,WeatherDisplay:10.37,2013-04-11 04:12:00,
2013-04-10 21:16:00,57.6,23.8,30.06,ESE,105,0.0,0.0,27,0.00,CLR,FEW,0.00,0.0,WeatherDisplay:10.37,2013-04-11 04:16:00,
2013-04-10 21:17:00,57.6,23.8,30.06,ESE,105,0.0,0.0,27,0.00,CLR,FEW,0.00,0.0,WeatherDisplay:10.37,2013-04-11 04:17:00,
2013-04-10 21:21:00,57.5,22.8,30.06,ESE,105,0.0,0.0,26,0.00,CLR,FEW,0.00,0.0,WeatherDisplay:10.37,2013-04-11 04:21:00,
2013-04-10 21:22:00,57.5,22.8,30.06,ESE,105,0.0,0.0,26,0.00,CLR,FEW,0.00,0.0,WeatherDisplay:10.37,2013-04-11 04:22:00,
2013-04-10 21:23:00,57.5,22.8,30.06,ESE,105,0.0,0.0,26,0.00,CLR,FEW,0.00,0.0,WeatherDisplay:10.37,2013-04-11 04:23:00,
2013-04-10 21:27:00,57.6,22.0,30.06,ENE,67,0.0,0.0,25,0.00,CLR,FEW,0.00,0.0,WeatherDisplay:10.37,2013-04-11 04:27:00,
2013-04-10 21:28:00,57.6,22.0,30.06,ENE,69,0.0,0.0,25,0.00,CLR,FEW,0.00,0.0,WeatherDisplay:10.37,2013-04-11 04:28:00,
2013-04-10 21:29:00,57.6,22.0,30.06,ENE,69,0.0,0.0,25,0.00,CLR,FEW,0.00,0.0,WeatherDisplay:10.37,2013-04-11 04:29:00,
2013-04-10 21:32:00,58.0,21.4,30.06,ENE,68,0.0,0.0,24,0.00,CLR,FEW,0.00,0.0,WeatherDisplay:10.37,2013-04-11 04:32:00,
2013-04-10 21:33:00,58.0,21.4,30.06,ENE,68,0.0,0.0,24,0.00,CLR,FEW,0.00,0.0,WeatherDisplay:10.37,2013-04-11 04:33:00,
2013-04-10 21:34:00,58.0,21.4,30.06,ENE,68,0.0,0.0,24,0.00,CLR,FEW,0.00,0.0,WeatherDisplay:10.37,2013-04-11 04:34:00,
2013-04-10 21:38:00,58.4,22.7,30.06,ENE,68,0.0,0.0,25,0.00,CLR,FEW,0.00,0.0,WeatherDisplay:10.37,2013-04-11 04:38:00,
2013-04-10 21:39:00,58.4,22.7,30.06,ENE,68,0.0,0.0,25,0.00,CLR,FEW,0.00,0.0,WeatherDisplay:10.37,2013-04-11 04:39:00,
2013-04-10 21:43:00,58.7,22.0,30.06,ENE,68,0.0,0.0,24,0.00,CLR,FEW,0.00,0.0,WeatherDisplay:10.37,2013-04-11 04:43:00,
2013-04-10 21:44:00,58.7,22.0,30.06,ENE,68,0.0,0.0,24,0.00,CLR,FEW,0.00,0.0,WeatherDisplay:10.37,2013-04-11 04:44:00,
2013-04-10 21:45:00,58.7,22.0,30.06,ENE,68,0.0,0.0,24,0.00,CLR,FEW,0.00,0.0,WeatherDisplay:10.37,2013-04-11 04:45:00,
2013-04-10 21:48:00,58.7,22.9,30.06,ENE,69,0.0,0.0,25,0.00,CLR,FEW,0.00,0.0,WeatherDisplay:10.37,2013-04-11 04:48:00,
2013-04-10 21:49:00,58.6,22.8,30.06,ENE,69,0.0,0.0,25,0.00,CLR,FEW,0.00,0.0,WeatherDisplay:10.37,2013-04-11 04:49:00,
2013-04-10 21:51:00,58.6,21.9,30.06,ENE,69,0.0,0.0,24,0.00,CLR,FEW,0.00,0.0,WeatherDisplay:10.37,2013-04-11 04:51:00,
2013-04-10 21:55:00,58.3,21.6,30.06,ENE,69,0.0,0.0,24,0.00,CLR,FEW,0.00,0.0,WeatherDisplay:10.37,2013-04-11 04:55:00,
2013-04-10 21:57:00,58.0,21.4,30.06,ENE,69,0.0,0.0,24,0.00,CLR,FEW,0.00,0.0,WeatherDisplay:10.37,2013-04-11 04:57:00,
2013-04-10 21:59:00,57.6,22.0,30.06,ENE,68,0.0,0.0,25,0.00,CLR,FEW,0.00,0.0,WeatherDisplay:10.37,2013-04-11 04:59:00,
2013-04-10 22:00:00,57.5,22.8,30.06,ENE,68,0.0,0.0,26,0.00,CLR,FEW,0.00,0.0,WeatherDisplay:10.37,2013-04-11 05:00:00,
2013-04-10 22:02:00,57.2,23.5,30.06,ENE,68,0.0,0.0,27,0.00,CLR,FEW,0.00,0.0,WeatherDisplay:10.37,2013-04-11 05:02:00,
2013-04-10 22:04:00,57.0,23.3,30.06,NE,36,0.0,0.0,27,0.00,CLR,FEW,0.00,0.0,WeatherDisplay:10.37,2013-04-11 05:04:00,
2013-04-10 22:05:00,56.9,23.2,30.06,NE,36,0.0,0.0,27,0.00,CLR,FEW,0.00,0.0,WeatherDisplay:10.37,2013-04-11 05:05:00,
2013-04-10 22:06:00,56.7,23.9,30.06,NE,34,0.0,0.0,28,0.00,CLR,FEW,0.00,0.0,WeatherDisplay:10.37,2013-04-11 05:06:00,
2013-04-10 22:09:00,56.6,23.8,30.06,NE,34,0.0,0.0,28,0.00,CLR,FEW,0.00,0.0,WeatherDisplay:10.37,2013-04-11 05:09:00,
2013-04-10 22:11:00,56.3,24.4,30.06,NE,34,0.0,0.0,29,0.00,CLR,FEW,0.00,0.0,WeatherDisplay:10.37,2013-04-11 05:11:00,
2013-04-10 22:14:00,55.9,24.9,30.06,NE,34,0.0,0.0,30,0.00,CLR,FEW,0.00,0.0,WeatherDisplay:10.37,2013-04-11 05:14:00,
2013-04-10 22:16:00,55.6,24.6,30.06,NE,34,0.0,0.0,30,0.00,CLR,FEW,0.00,0.0,WeatherDisplay:10.37,2013-04-11 05:16:00,
2013-04-10 22:17:00,55.4,25.2,30.06,NE,34,0.0,0.0,31,0.00,CLR,FEW,0.00,0.0,WeatherDisplay:10.37,2013-04-11 05:17:00,
2013-04-10 22:19:00,55.1,25.0,30.06,NE,34,0.0,0.0,31,0.00,CLR,FEW,0.00,0.0,WeatherDisplay:10.37,2013-04-11 05:19:00,
2013-04-10 22:21:00,55.0,25.6,30.06,NE,34,0.0,0.0,32,0.00,CLR,FEW,0.00,0.0,WeatherDisplay:10.37,2013-04-11 05:21:00,
2013-04-10 22:22:00,55.0,24.9,30.06,NE,34,0.0,0.0,31,0.00,CLR,FEW,0.00,0.0,WeatherDisplay:10.37,2013-04-11 05:22:00,
2013-04-10 22:24:00,55.0,24.9,30.06,NE,34,0.0,0.0,31,0.00,CLR,FEW,0.00,0.0,WeatherDisplay:10.37,2013-04-11 05:24:00,
2013-04-10 22:25:00,55.0,24.9,30.06,NE,34,0.0,0.0,31,0.00,CLR,FEW,0.00,0.0,WeatherDisplay:10.37,2013-04-11 05:25:00,
2013-04-10 22:26:00,55.1,25.0,30.06,NE,35,0.0,0.0,31,0.00,CLR,FEW,0.00,0.0,WeatherDisplay:10.37,2013-04-11 05:26:00,
2013-04-10 22:27:00,55.3,23.5,30.06,East,92,0.0,0.0,29,0.00,CLR,FEW,0.00,0.0,WeatherDisplay:10.37,2013-04-11 05:27:00,
2013-04-10 22:29:00,55.4,22.8,30.06,ESE,107,0.0,0.0,28,0.00,CLR,FEW,0.00,0.0,WeatherDisplay:10.37,2013-04-11 05:29:00,
2013-04-10 22:30:00,55.6,23.0,30.06,ESE,107,0.0,0.0,28,0.00,CLR,FEW,0.00,0.0,WeatherDisplay:10.37,2013-04-11 05:30:00,
2013-04-10 22:31:00,55.4,22.8,30.06,ESE,107,0.0,0.0,28,0.00,CLR,FEW,0.00,0.0,WeatherDisplay:10.37,2013-04-11 05:31:00,
2013-04-10 22:32:00,55.4,22.8,30.06,ESE,107,0.0,0.0,28,0.00,CLR,FEW,0.00,0.0,WeatherDisplay:10.37,2013-04-11 05:32:00,
2013-04-10 22:35:00,55.6,23.0,30.06,East,89,0.0,0.0,28,0.00,CLR,FEW,0.00,0.0,WeatherDisplay:10.37,2013-04-11 05:35:00,
2013-04-10 22:38:00,56.0,23.3,30.06,ENE,61,0.0,0.0,28,0.00,CLR,FEW,0.00,0.0,WeatherDisplay:10.37,2013-04-11 05:38:00,
2013-04-10 22:40:00,56.2,22.6,30.06,ENE,61,0.0,0.0,27,0.00,CLR,FEW,0.00,0.0,WeatherDisplay:10.37,2013-04-11 05:40:00,
2013-04-10 22:44:00,56.3,23.6,30.06,ENE,61,0.0,0.0,28,0.00,CLR,FEW,0.00,0.0,WeatherDisplay:10.37,2013-04-11 05:44:00,
2013-04-10 22:45:00,56.3,23.6,30.06,ENE,61,0.0,0.0,28,0.00,CLR,FEW,0.00,0.0,WeatherDisplay:10.37,2013-04-11 05:45:00,
2013-04-10 22:47:00,56.2,24.3,30.05,ENE,61,0.0,0.0,29,0.00,CLR,FEW,0.00,0.0,WeatherDisplay:10.37,2013-04-11 05:47:00,
2013-04-10 22:50:00,56.0,25.0,30.05,ENE,61,0.0,0.0,30,0.00,CLR,FEW,0.00,0.0,WeatherDisplay:10.37,2013-04-11 05:50:00,
2013-04-10 22:53:00,55.9,24.1,30.05,ENE,61,0.0,0.0,29,0.00,CLR,FEW,0.00,0.0,WeatherDisplay:10.37,2013-04-11 05:53:00,
2013-04-10 22:55:00,56.2,23.5,30.05,ENE,61,0.0,0.0,28,0.00,CLR,FEW,0.00,0.0,WeatherDisplay:10.37,2013-04-11 05:55:00,
2013-04-10 22:56:00,56.2,23.5,30.05,ENE,61,0.0,0.0,28,0.00,CLR,FEW,0.00,0.0,WeatherDisplay:10.37,2013-04-11 05:56:00,
2013-04-10 22:58:00,56.3,23.6,30.05,ENE,61,0.0,0.0,28,0.00,CLR,FEW,0.00,0.0,WeatherDisplay:10.37,2013-04-11 05:58:00,
2013-04-10 23:00:00,56.0,24.2,30.05,ESE,102,0.0,0.0,29,0.00,CLR,FEW,0.00,0.0,WeatherDisplay:10.37,2013-04-11 06:00:00,
2013-04-10 23:02:00,56.0,23.3,30.05,ESE,102,0.0,0.0,28,0.00,CLR,FEW,0.00,0.0,WeatherDisplay:10.37,2013-04-11 06:02:00,
2013-04-10 23:04:00,55.9,22.4,30.05,ESE,102,0.0,0.0,27,0.00,CLR,FEW,0.00,0.0,WeatherDisplay:10.37,2013-04-11 06:04:00,
2013-04-10 23:05:00,55.9,22.4,30.05,ESE,102,0.0,0.0,27,0.00,CLR,FEW,0.00,0.0,WeatherDisplay:10.37,2013-04-11 06:05:00,
2013-04-10 23:06:00,55.7,22.2,30.05,East,96,0.0,0.0,27,0.00,CLR,FEW,0.00,0.0,WeatherDisplay:10.37,2013-04-11 06:06:00,
2013-04-10 23:08:00,55.6,22.1,30.05,ENE,67,0.0,0.0,27,0.00,CLR,FEW,0.00,0.0,WeatherDisplay:10.37,2013-04-11 06:08:00,
2013-04-10 23:10:00,55.4,22.8,30.05,ENE,63,0.0,0.0,28,0.00,CLR,FEW,0.00,0.0,WeatherDisplay:10.37,2013-04-11 06:10:00,
2013-04-10 23:11:00,55.3,22.7,30.05,East,88,0.0,0.0,28,0.00,CLR,FEW,0.00,0.0,WeatherDisplay:10.37,2013-04-11 06:11:00,
2013-04-10 23:12:00,55.3,21.8,30.05,ENE,71,0.0,0.0,27,0.00,CLR,FEW,0.00,0.0,WeatherDisplay:10.37,2013-04-11 06:12:00,
2013-04-10 23:14:00,55.6,22.1,30.05,ENE,74,0.0,0.0,27,0.00,CLR,FEW,0.00,0.0,WeatherDisplay:10.37,2013-04-11 06:14:00,
2013-04-10 23:16:00,55.7,22.2,30.04,East,86,0.0,0.0,27,0.00,CLR,FEW,0.00,0.0,WeatherDisplay:10.37,2013-04-11 06:16:00,
2013-04-10 23:17:00,55.7,22.2,30.04,East,86,0.0,0.0,27,0.00,CLR,FEW,0.00,0.0,WeatherDisplay:10.37,2013-04-11 06:17:00,
2013-04-10 23:19:00,55.6,23.0,30.04,NE,36,0.0,0.0,28,0.00,CLR,FEW,0.00,0.0,WeatherDisplay:10.37,2013-04-11 06:19:00,
2013-04-10 23:22:00,55.4,22.8,30.04,NE,53,0.0,0.0,28,0.00,CLR,FEW,0.00,0.0,WeatherDisplay:10.37,2013-04-11 06:22:00,
2013-04-10 23:23:00,55.4,22.8,30.04,NE,55,0.0,0.0,28,0.00,CLR,FEW,0.00,0.0,WeatherDisplay:10.37,2013-04-11 06:23:00,
2013-04-10 23:24:00,55.6,22.1,30.04,NE,46,0.0,0.0,27,0.00,CLR,FEW,0.00,0.0,WeatherDisplay:10.37,2013-04-11 06:24:00,
2013-04-10 23:28:00,55.6,22.1,30.04,East,90,0.0,0.0,27,0.00,CLR,FEW,0.00,0.0,WeatherDisplay:10.37,2013-04-11 06:28:00,
2013-04-10 23:29:00,55.6,22.1,30.04,East,90,0.0,0.0,27,0.00,CLR,FEW,0.00,0.0,WeatherDisplay:10.37,2013-04-11 06:29:00,
2013-04-10 23:34:00,55.3,22.7,30.03,East,84,0.0,0.0,28,0.00,CLR,FEW,0.00,0.0,WeatherDisplay:10.37,2013-04-11 06:34:00,
2013-04-10 23:35:00,55.3,21.8,30.03,East,84,0.0,0.0,27,0.00,CLR,FEW,0.00,0.0,WeatherDisplay:10.37,2013-04-11 06:35:00,
2013-04-10 23:39:00,55.3,22.7,30.03,NE,55,0.0,0.0,28,0.00,CLR,FEW,0.00,0.0,WeatherDisplay:10.37,2013-04-11 06:39:00,
2013-04-10 23:40:00,55.3,22.7,30.03,ENE,72,0.0,0.0,28,0.00,CLR,FEW,0.00,0.0,WeatherDisplay:10.37,2013-04-11 06:40:00,
2013-04-10 23:45:00,55.3,22.7,30.03,ENE,73,0.0,0.0,28,0.00,CLR,FEW,0.00,0.0,WeatherDisplay:10.37,2013-04-11 06:45:00,
2013-04-10 23:46:00,55.3,22.7,30.03,SSE,150,0.0,0.0,28,0.00,CLR,FEW,0.00,0.0,WeatherDisplay:10.37,2013-04-11 06:46:00,
2013-04-10 23:50:00,55.6,22.1,30.03,East,86,0.0,0.0,27,0.00,CLR,FEW,0.00,0.0,WeatherDisplay:10.37,2013-04-11 06:50:00,
2013-04-10 23:51:00,55.6,22.1,30.03,ESE,121,1.4,2.6,27,0.00,CLR,FEW,0.00,0.0,WeatherDisplay:10.37,2013-04-11 06:51:00,
2013-04-10 23:53:00,55.9,21.5,30.03,East,83,0.3,2.3,26,0.00,CLR,FEW,0.00,0.0,WeatherDisplay:10.37,2013-04-11 06:53:00,
2013-04-10 23:55:00,55.9,21.5,30.03,East,84,0.0,0.0,26,0.00,CLR,FEW,0.00,0.0,WeatherDisplay:10.37,2013-04-11 06:55:00,
2013-04-10 23:56:00,55.9,22.4,30.03,East,96,0.0,0.0,27,0.00,CLR,FEW,0.00,0.0,WeatherDisplay:10.37,2013-04-11 06:56:00,
2013-04-10 23:57:00,55.9,22.4,30.03,East,96,0.0,0.0,27,0.00,CLR,FEW,0.00,0.0,WeatherDisplay:10.37,2013-04-11 06:57:00,
2013-04-10 23:59:00,55.9,22.4,30.03,ESE,107,0.0,0.0,27,0.00,CLR,FEW,0.00,0.0,WeatherDisplay:10.37,2013-04-11 06:59:00,